GFSFLT1_sfc_thetae_000.txt.gz
Theta_e
313 313 315 314 315 313 313 312 312 313 312 312 311 311 311 311 312 312 312 310 309 308 309 308 307 306 305 305 304 304 303 303
314 315 315 313 314 311 311 310 311 309 309 308 307 307 309 310 310 311 311 310 309 308 307 306 307 305 304 304 303 302 301 303
311 313 314 313 312 312 310 310 310 309 308 308 308 309 308 309 309 310 310 310 309 308 307 305 305 304 304 304 303 300 301 302
309 312 312 313 312 312 311 310 310 310 309 308 308 308 307 305 305 307 309 309 310 309 308 306 305 305 303 303 302 301 298 300
309 311 311 313 312 314 312 311 310 310 310 306 306 303 301 303 304 305 306 309 308 308 308 307 305 305 303 304 303 303 301 297
308 308 310 311 312 313 312 312 311 310 310 308 306 304 304 305 305 306 305 306 306 306 306 305 304 304 303 302 302 302 301 299
308 310 310 310 313 313 314 312 310 311 310 309 307 304 305 304 304 302 303 303 303 304 303 301 301 301 300 299 299 299 299 298
308 308 309 310 311 312 313 312 309 310 310 309 307 306 305 304 304 302 301 299 299 299 299 298 298 297 298 297 296 296 296 296
308 310 311 311 312 312 311 310 309 309 309 309 308 307 305 304 303 300 298 297 297 298 297 297 297 297 296 296 295 295 295 295
309 310 310 311 311 311 310 310 310 309 309 309 307 306 303 301 301 299 297 298 297 298 297 296 296 296 295 295 293 293 294 294
309 309 309 310 310 311 311 311 308 307 307 305 302 301 300 298 298 297 296 296 296 296 295 295 294 294 294 293 292 293 293 293
308 309 309 309 310 308 308 306 304 304 303 301 299 298 298 297 296 295 295 296 295 294 294 293 293 292 292 291 291 291 291 291
306 307 308 308 307 307 307 304 303 301 300 298 297 296 296 294 294 295 296 294 295 294 293 293 292 291 291 290 289 290 289 289
305 306 306 306 306 306 306 302 301 300 297 296 295 294 294 294 294 295 294 294 293 293 292 291 291 290 290 289 289 289 288 288
305 304 305 305 305 305 303 300 301 298 296 295 294 294 295 295 294 294 294 293 292 291 291 290 290 289 289 289 288 287 287 288
303 303 303 303 304 304 301 300 299 298 296 295 296 296 296 295 294 293 293 292 291 291 289 288 288 289 288 287 287 285 285 285
302 302 301 302 303 303 298 298 298 297 295 297 297 296 295 293 293 292 291 291 289 288 287 287 287 288 288 288 287 284 284 283
302 300 301 302 302 299 297 298 299 298 297 296 295 295 293 292 292 291 289 287 287 286 286 286 285 286 288 288 286 283 282 282
301 301 302 302 299 297 298 299 298 296 295 295 295 293 291 291 290 288 286 286 285 284 284 285 284 285 286 286 285 282 281 282

GFSFLT1_sfc_thetae_003.txt.gz
Theta_e
305 304 305 305 304 304 305 304 303 305 305 304 304 303 304 305 308 308 309 307 306 303 305 305 303 302 302 301 300 301 300 299
306 306 304 304 303 303 303 303 303 303 301 301 300 300 302 303 303 307 307 306 305 303 302 303 303 301 301 300 300 299 298 299
304 305 303 303 303 303 302 303 303 302 302 301 301 300 301 302 303 304 306 305 305 304 303 300 301 300 299 299 300 298 298 299
302 304 303 303 302 303 304 303 303 303 302 301 301 301 301 299 300 302 303 305 305 304 303 302 301 300 299 300 298 297 295 298
302 301 300 303 304 304 305 305 305 304 303 300 300 299 298 299 300 300 302 304 305 305 304 303 302 300 300 300 302 299 298 295
301 300 301 301 304 304 305 305 305 306 304 302 300 298 300 301 301 301 300 303 304 304 302 302 301 300 299 297 297 297 298 297
302 302 304 303 305 304 304 304 305 305 305 304 302 301 301 300 300 299 300 300 299 299 298 297 296 296 296 296 296 294 294 295
302 300 302 303 304 304 304 305 305 305 304 304 304 303 301 300 300 297 297 295 296 295 296 296 296 296 296 296 295 294 294 293
301 301 303 303 304 304 304 305 306 305 304 303 304 303 303 302 301 298 294 294 295 295 295 295 295 295 295 295 294 293 293 293
301 302 303 303 303 304 302 302 304 304 302 301 299 299 297 295 293 294 294 295 295 294 294 293 294 294 295 294 293 292 292 292
302 302 303 303 303 302 302 302 301 300 297 296 295 294 293 294 295 293 293 293 293 293 293 294 294 294 293 293 292 292 291 291
301 302 304 302 302 301 301 302 301 296 295 294 293 293 292 291 292 292 292 292 293 293 293 293 293 292 292 292 291 290 290 290
301 301 302 301 301 302 302 302 297 295 294 292 292 291 290 290 291 292 292 291 293 292 292 292 292 292 291 290 289 288 288 287
301 301 302 302 301 301 301 301 294 294 292 291 290 289 289 289 290 290 291 292 292 291 292 291 291 290 290 289 288 288 287 287
300 300 301 299 300 301 300 295 295 295 291 290 289 289 289 290 289 290 290 291 290 290 290 290 290 289 288 288 287 286 285 285
300 300 300 298 300 300 296 295 296 296 293 290 291 291 292 291 290 290 290 290 290 290 289 287 287 287 287 285 284 283 282 282
300 300 300 300 300 297 296 296 297 297 296 295 295 294 293 292 291 291 290 288 287 286 285 285 284 286 288 288 285 282 282 281
299 299 299 300 298 296 294 296 297 297 296 295 295 295 294 293 292 289 287 285 284 283 282 282 282 283 287 287 286 282 281 280
297 298 298 296 294 294 295 296 298 296 295 295 295 294 292 289 288 287 284 282 281 281 281 281 281 283 286 286 285 282 280 280

GFSFLT1_sfc_thetae_006.txt.gz
Theta_e
303 303 303 302 302 303 302 300 302 304 303 302 301 302 302 302 307 308 309 308 307 303 304 304 302 301 300 299 298 299 298 297
301 302 302 301 301 302 302 302 301 301 300 299 298 299 300 301 302 308 308 307 306 302 302 303 303 300 300 299 298 298 296 296
302 301 299 300 300 301 301 301 301 301 299 299 300 298 299 301 301 302 306 306 304 303 301 301 301 300 299 299 299 297 296 297
301 302 300 299 300 301 301 301 301 301 301 300 299 298 298 298 299 300 302 305 305 303 301 301 299 299 298 297 297 296 294 296
300 299 299 300 301 300 301 302 302 302 301 299 298 300 299 301 302 299 301 304 304 303 302 301 299 299 298 298 298 297 296 293
298 298 299 300 302 302 302 302 303 304 303 301 299 299 300 301 298 297 298 300 302 303 302 301 299 299 297 295 295 293 294 293
300 300 300 301 302 302 303 303 303 304 303 303 300 299 300 298 299 298 298 296 296 298 298 296 296 295 295 294 294 292 292 293
299 299 300 301 300 301 302 302 304 305 303 302 302 301 301 299 299 299 298 296 295 294 295 295 294 294 294 293 295 295 293 292
299 300 301 301 302 301 302 303 302 302 302 302 301 301 300 300 298 297 294 295 294 294 294 294 295 295 294 295 296 295 294 291
300 301 301 300 300 300 301 300 301 302 300 297 295 294 295 292 292 292 293 293 294 293 295 295 296 297 297 294 292 291 292 291
300 300 301 301 300 301 301 301 301 300 296 294 293 291 292 292 291 291 291 293 295 296 297 297 297 295 294 293 291 290 290 290
299 301 303 303 303 302 301 299 299 294 293 293 292 290 291 290 290 290 291 292 293 294 294 293 293 293 292 290 289 289 288 288
299 300 301 300 300 299 299 299 294 293 293 292 291 290 289 288 289 290 291 291 292 292 292 292 291 291 290 289 288 288 286 285
299 299 300 300 299 299 299 298 293 294 292 290 289 288 287 288 288 289 290 290 290 290 290 290 290 290 289 288 287 286 286 286
299 298 298 299 298 298 298 294 294 294 293 289 288 287 287 288 288 289 290 290 289 289 289 290 290 289 287 287 286 284 283 283
298 297 297 298 298 298 295 295 295 294 291 289 289 290 290 290 289 289 291 290 289 289 288 286 285 285 286 284 283 282 281 281
298 299 299 298 298 296 295 294 294 295 294 295 295 294 293 292 293 293 292 289 288 286 284 283 282 284 287 287 285 281 281 281
297 298 298 297 295 294 293 293 295 296 296 295 295 295 294 293 292 291 287 284 283 282 281 281 281 281 286 286 286 282 281 280
298 297 296 295 294 293 293 293 294 294 294 294 293 292 290 288 286 284 282 281 280 280 280 280 280 281 285 285 284 281 280 280

GFSFLT1_sfc_thetae_009.txt.gz
Theta_e
301 300 302 302 303 302 300 304 304 303 302 301 300 301 301 302 303 307 309 308 308 304 304 304 301 300 299 298 297 297 297 296
299 299 299 299 300 301 299 299 299 300 299 299 298 298 299 300 301 305 308 308 307 303 302 303 301 300 299 299 297 296 296 295
299 299 297 299 299 299 300 300 300 299 298 298 298 297 298 299 300 301 306 308 307 304 301 302 302 300 298 298 297 295 295 295
299 299 298 297 298 299 300 300 300 300 300 298 298 297 297 297 298 298 301 306 308 305 302 301 301 301 300 298 297 296 294 295
299 299 299 299 299 299 299 300 300 301 300 299 297 298 298 301 301 300 301 302 304 306 305 301 300 298 296 296 297 295 294 292
298 299 298 298 299 299 300 301 302 303 302 301 300 298 300 301 301 297 298 298 301 303 304 301 299 299 298 296 294 292 292 292
298 299 299 300 300 300 300 302 302 303 303 302 300 298 299 298 299 298 299 296 297 299 299 298 296 295 295 293 294 293 292 292
297 296 299 300 299 299 300 300 300 300 300 300 300 299 298 298 298 298 296 293 292 293 294 293 293 294 294 296 295 296 296 295
298 299 299 298 298 299 299 300 300 300 300 298 297 296 296 298 297 295 294 292 291 292 293 296 297 297 297 298 297 295 295 294
298 299 299 299 299 299 299 299 300 300 297 294 294 293 293 294 291 291 290 291 293 293 294 296 297 296 296 296 294 293 293 292
298 298 299 300 300 299 299 299 299 298 293 293 294 292 291 291 290 290 290 291 293 295 296 296 297 296 295 294 292 291 290 290
298 299 300 300 299 299 298 298 298 294 292 292 292 291 290 288 289 289 290 292 293 293 293 294 293 292 292 291 289 289 288 287
299 299 300 299 298 298 298 297 295 293 293 292 292 290 288 287 288 290 291 291 292 291 291 291 290 290 289 288 287 287 286 285
299 299 300 299 299 298 297 297 293 293 294 293 291 288 286 287 288 290 291 290 290 290 290 289 289 289 288 287 286 286 285 285
299 299 298 298 299 298 297 295 294 294 294 292 288 286 286 287 288 289 290 291 289 289 289 289 288 286 286 285 284 283 282 282
298 298 298 298 297 296 296 294 294 294 294 289 288 290 290 289 291 292 292 292 291 289 287 285 284 284 284 283 282 282 281 281
298 297 298 297 297 295 294 293 293 294 293 293 294 295 295 294 294 293 291 290 287 285 283 282 281 283 286 287 285 282 281 280
296 296 297 297 295 294 292 292 293 293 293 293 293 294 294 293 293 291 286 283 283 281 281 281 281 281 284 285 285 281 280 280
297 297 296 295 294 292 291 291 291 291 289 286 288 288 287 285 284 282 281 280 280 279 279 280 280 281 284 284 283 280 278 279

GFSFLT1_sfc_thetae_015.txt.gz
Theta_e
306 307 308 311 316 318 320 319 319 318 317 315 314 314 314 314 314 314 315 316 318 318 318 318 318 316 316 315 314 312 309 308
305 306 307 309 312 314 316 314 314 314 312 310 311 310 310 311 311 311 312 312 314 315 315 316 316 314 314 314 312 310 308 307
304 306 307 308 310 311 309 307 307 307 308 309 309 308 309 308 310 311 312 311 311 311 313 313 313 312 313 313 310 308 307 308
304 305 307 307 307 306 306 306 307 308 308 309 309 310 310 309 309 309 310 310 310 310 310 311 311 311 310 312 311 309 307 307
305 305 305 306 306 308 309 309 309 309 309 308 307 305 304 306 306 307 308 309 309 308 308 309 310 310 309 309 309 308 307 304
303 304 305 305 307 307 308 309 308 308 308 306 305 305 305 305 305 305 306 307 307 306 305 306 307 308 307 306 306 305 304 304
302 305 306 306 308 308 309 308 308 309 308 305 305 304 303 303 304 303 304 304 304 302 302 303 303 302 301 301 301 300 300 299
303 304 305 306 306 307 307 307 307 307 307 304 303 303 304 303 303 302 301 300 301 299 300 301 301 301 301 301 299 297 295 293
303 303 305 305 306 306 307 306 306 307 306 304 303 304 303 302 301 301 299 298 299 300 301 301 301 302 301 299 296 295 293 292
303 304 305 306 306 306 306 305 305 305 305 303 302 302 302 301 301 299 297 298 299 300 302 301 300 300 298 297 296 293 293 293
304 305 306 306 307 306 306 307 305 305 305 302 301 301 301 300 298 296 296 298 300 300 300 298 298 298 298 297 297 297 295 295
304 305 306 306 306 306 306 305 304 304 303 301 301 300 299 296 294 295 296 298 298 296 295 295 295 294 295 295 295 294 294 293
304 304 305 305 305 305 305 305 304 302 300 300 299 297 294 293 293 294 295 294 295 295 296 295 293 294 293 292 291 291 290 289
304 304 303 304 303 303 303 303 302 300 300 299 296 293 292 292 295 296 296 296 296 295 294 293 291 290 289 289 288 288 288 288
303 302 302 301 301 301 301 300 300 299 298 297 295 293 292 295 296 296 296 296 295 295 293 291 289 288 287 287 287 287 287 287
300 298 297 298 299 299 299 299 298 298 298 297 296 295 295 295 295 294 295 294 294 295 292 288 287 286 286 287 287 287 286 286
296 296 296 297 298 296 296 296 296 296 295 294 292 292 292 293 293 294 294 292 288 287 286 285 285 285 284 285 285 285 284 283
293 294 296 297 296 295 295 294 294 292 292 291 291 292 292 291 289 288 287 286 286 285 285 285 285 285 283 283 283 283 283 283
294 295 297 296 295 295 292 291 291 290 290 291 292 289 287 287 287 286 285 285 285 284 284 285 284 283 282 282 282 283 283 282

GFSFLT1_sfc_thetae_021.txt.gz
Theta_e
324 322 323 322 326 326 329 333 333 329 328 327 323 322 321 322 321 321 322 322 322 321 321 321 322 320 321 321 322 321 321 320
319 319 320 323 326 327 329 328 325 324 322 319 318 318 319 319 320 321 321 320 319 319 317 318 319 316 319 321 320 319 318 321
316 318 320 320 320 321 320 319 318 318 319 318 319 318 318 319 320 319 318 317 316 315 316 314 316 314 317 318 318 315 316 319
313 315 317 319 318 318 318 318 318 318 318 318 318 318 318 316 316 316 316 316 315 314 314 313 314 314 313 315 315 314 311 314
313 314 315 317 318 319 318 317 317 317 318 315 315 313 312 314 315 316 315 315 314 312 311 311 311 312 313 313 311 312 311 308
313 314 315 316 318 319 318 317 316 316 316 315 314 313 314 314 313 312 312 311 310 309 309 310 310 310 310 310 310 308 308 306
312 314 314 316 318 318 317 316 315 316 316 316 314 312 311 309 309 308 307 308 308 308 307 308 309 309 308 307 304 302 300 300
312 312 313 314 315 316 316 315 314 315 314 313 312 311 310 309 308 307 306 305 305 305 307 307 307 307 304 303 302 301 299 296
311 312 313 314 314 315 315 315 314 314 314 313 313 313 310 309 308 306 304 303 304 306 306 306 304 304 303 302 301 300 300 299
310 312 313 313 314 314 314 314 313 312 313 313 312 310 309 307 306 304 303 304 303 304 305 304 303 301 300 299 299 299 298 298
311 311 312 312 313 313 314 313 311 311 310 309 309 308 307 305 303 302 302 303 304 303 302 302 299 299 299 298 298 298 297 297
309 310 310 311 312 311 310 310 309 308 308 307 306 305 304 303 302 301 302 302 301 300 300 298 299 297 297 296 296 295 295 295
308 308 309 309 309 309 308 308 306 306 305 304 303 303 303 302 301 301 301 299 300 300 299 297 297 296 296 295 294 294 293 293
307 307 307 306 307 307 305 305 304 303 302 302 302 302 302 300 300 300 300 299 299 299 298 297 296 296 294 293 292 291 291 291
305 306 306 306 305 303 303 303 302 301 301 300 300 300 298 298 299 299 297 297 296 295 295 294 293 292 292 291 291 290 289 290
305 303 303 302 301 302 303 301 301 300 299 299 299 298 297 297 297 296 295 295 294 293 292 292 292 291 290 289 288 287 287 287
301 300 300 299 300 301 300 300 299 299 298 298 298 297 296 295 295 294 293 292 292 292 291 291 291 290 284 284 284 285 285 286
297 298 299 300 301 301 299 299 299 298 297 297 296 295 294 294 293 292 291 291 291 290 290 290 290 290 284 284 283 285 284 285
300 299 299 300 301 301 300 299 298 297 297 296 296 294 293 293 291 291 290 291 290 290 290 289 289 288 285 283 283 284 284 285

GFSFLT1_sfc_thetae_027.txt.gz
Theta_e
316 317 318 319 320 320 320 320 320 321 319 317 315 314 313 313 313 314 313 314 313 310 310 310 309 308 308 308 306 307 307 308
313 314 314 314 313 314 313 313 312 312 310 309 308 308 309 310 312 312 311 312 311 310 309 307 307 306 305 305 304 304 305 305
312 312 312 311 310 310 311 311 311 311 309 309 309 309 310 310 312 311 312 311 310 310 307 307 306 305 304 303 302 301 302 303
310 311 309 308 308 308 310 310 310 310 309 309 309 309 308 307 308 307 309 308 307 305 304 304 303 304 302 301 301 300 298 300
310 309 308 309 308 309 309 310 309 310 309 308 307 305 303 305 305 305 305 305 304 304 303 302 301 302 301 302 300 297 296 294
306 308 309 309 309 308 308 309 309 310 310 309 307 304 305 305 304 303 302 303 302 302 302 301 300 300 301 298 297 299 299 297
306 308 310 309 309 308 308 308 309 309 308 308 306 304 305 303 301 300 299 299 299 300 300 299 300 300 299 301 300 299 298 297
304 305 305 307 305 307 308 308 308 308 308 306 305 304 304 303 302 300 298 297 297 296 299 299 300 300 300 299 299 296 296 293
303 305 305 305 306 306 306 307 307 307 306 305 303 302 302 300 299 297 296 295 296 297 298 297 296 296 296 297 296 297 295 293
304 305 304 304 304 306 305 303 304 304 303 302 301 301 300 297 296 296 295 296 298 296 296 295 295 295 295 298 295 293 293 292
302 303 304 304 304 305 304 303 302 300 299 299 298 297 298 297 296 296 296 296 296 295 295 295 295 295 295 294 293 293 292 290
302 303 303 303 304 303 302 301 300 298 297 297 296 296 297 296 295 294 295 295 296 295 296 295 295 294 293 292 291 292 292 289
301 302 302 301 301 301 300 299 298 297 297 296 295 296 295 294 293 294 294 294 295 294 293 291 293 293 292 291 290 289 286 284
300 300 299 300 300 299 298 298 296 296 295 294 294 294 293 292 293 294 294 293 292 291 290 288 289 289 288 287 286 285 284 284
299 298 298 298 299 297 296 297 296 296 296 294 293 293 293 292 292 293 292 292 290 288 288 288 289 288 287 286 286 283 283 283
298 296 296 297 296 295 296 297 297 296 295 295 293 294 293 293 293 292 292 291 289 288 288 287 287 287 285 283 282 281 281 281
297 297 298 297 295 295 295 295 296 296 295 294 295 294 294 293 292 291 291 288 287 287 286 286 285 286 285 285 283 280 281 280
296 297 297 295 294 294 292 293 295 295 295 295 294 295 294 294 294 292 289 286 285 285 285 286 284 283 285 285 284 281 280 279
296 296 295 294 294 293 292 292 292 292 293 293 294 294 293 293 293 291 287 286 284 284 284 285 283 284 287 287 285 280 280 280

GFSFLT1_sfc_thetae_030.txt.gz
Theta_e
312 312 315 316 317 320 320 321 321 323 318 315 312 311 310 311 311 310 311 310 310 308 308 307 306 305 305 303 302 302 302 302
311 311 311 311 311 312 313 313 311 310 309 309 308 307 308 309 309 310 309 309 309 306 305 304 304 303 302 302 301 300 300 301
309 309 308 309 310 309 309 309 308 308 308 307 307 306 308 307 307 307 306 305 305 303 301 301 301 302 301 300 299 299 299 298
307 308 308 307 306 307 308 308 308 307 308 307 307 306 305 304 304 303 303 303 302 302 301 300 299 300 299 299 298 297 295 295
307 306 306 306 305 306 307 307 308 308 308 307 305 303 302 302 302 301 301 301 301 301 300 299 298 299 299 298 298 295 297 295
305 306 307 307 307 305 306 308 308 308 308 306 305 303 303 302 301 299 299 299 300 299 300 299 299 299 298 297 296 296 295 293
305 306 307 306 306 305 305 306 306 307 306 305 303 302 301 299 298 296 297 297 297 297 299 298 298 297 297 296 295 294 293 292
304 305 305 305 304 304 306 306 305 306 305 303 302 301 299 299 298 295 295 294 294 295 297 296 297 296 295 295 294 293 292 292
302 302 302 303 303 303 304 304 304 304 303 301 300 301 299 297 296 295 294 293 294 294 296 295 295 295 294 293 293 293 293 291
301 302 302 302 303 303 301 301 302 301 300 298 297 298 297 295 295 295 294 294 296 294 294 294 294 294 294 293 291 291 291 290
301 301 302 302 302 301 300 300 298 297 297 296 296 296 296 295 294 294 294 294 294 294 293 294 294 294 293 292 290 290 289 289
300 299 300 299 300 299 298 298 297 296 295 295 295 295 295 294 293 293 293 293 293 294 293 293 293 292 292 290 290 290 288 286
298 298 298 298 297 297 298 297 296 295 295 295 294 295 294 293 292 292 292 292 293 293 291 288 288 288 288 287 287 285 283 282
297 297 297 297 297 297 296 296 295 295 295 293 293 292 293 292 291 292 293 292 292 292 289 287 287 287 286 285 284 283 283 282
297 296 296 296 296 295 294 295 295 295 294 292 292 292 291 292 291 292 293 293 293 290 288 288 288 286 285 284 283 281 281 281
296 296 295 295 295 294 293 293 294 294 293 293 292 293 292 293 291 292 293 294 293 290 288 287 286 285 284 281 281 281 280 280
295 295 296 296 294 292 292 292 292 293 293 293 294 294 294 292 292 293 293 292 292 288 286 286 285 285 286 285 283 280 280 280
294 294 294 293 291 291 290 290 291 291 292 292 293 292 292 292 292 292 292 291 287 286 285 285 283 282 286 286 287 282 280 279
294 292 291 290 290 289 289 289 289 289 290 291 292 291 291 291 291 290 288 287 287 286 285 284 283 284 286 287 286 281 279 279

GFSFLT1_sfc_thetae_033.txt.gz
Theta_e
309 311 315 316 316 319 320 321 323 321 314 312 309 309 308 308 307 307 306 306 305 303 303 303 305 303 302 301 300 300 299 299
309 310 310 311 312 314 316 315 311 310 310 312 309 305 305 305 305 305 304 304 305 303 302 300 301 300 300 300 299 298 298 297
306 308 309 310 311 308 307 307 307 307 307 306 306 305 304 303 302 302 303 303 302 300 299 298 299 300 298 297 298 298 297 296
306 308 307 306 305 305 306 306 306 307 307 306 305 304 304 302 301 300 300 300 300 299 298 298 298 298 297 297 296 295 294 294
307 305 303 303 304 304 305 306 306 306 306 305 304 302 301 301 299 299 298 299 298 299 299 299 298 298 297 296 297 294 293 291
305 306 305 305 304 303 304 305 306 306 306 305 303 302 302 301 299 297 297 297 298 299 299 298 297 297 296 295 293 293 293 291
305 306 306 304 304 303 303 304 305 305 304 304 303 301 299 297 296 297 296 295 295 297 297 296 296 295 295 294 293 292 291 290
303 304 305 306 304 303 303 303 303 303 302 301 301 299 298 297 296 294 293 293 293 294 295 295 295 295 294 293 292 291 290 289
304 305 304 303 302 302 301 303 302 302 300 299 300 299 297 296 295 294 293 293 293 293 294 294 294 293 293 292 291 291 290 289
300 300 301 301 301 300 299 300 300 300 298 297 298 298 296 295 294 293 293 293 294 293 293 293 293 293 293 292 290 290 289 288
299 299 299 300 300 299 299 299 297 296 296 295 295 295 296 295 294 293 293 293 293 293 292 292 292 292 292 290 289 289 287 287
297 298 298 298 298 296 296 296 295 294 294 294 294 294 294 293 293 293 293 292 292 293 293 292 292 292 291 290 288 288 285 283
297 297 297 297 295 295 296 296 295 295 294 293 292 294 294 293 292 292 292 291 292 292 291 289 289 289 288 286 285 284 283 282
295 296 295 295 297 295 294 294 295 293 293 292 291 291 291 291 292 291 291 292 291 291 292 290 289 288 287 285 284 283 282 281
295 295 295 296 296 293 292 292 293 293 292 291 291 291 291 291 291 290 290 291 290 291 292 290 289 288 286 284 283 281 281 281
295 295 295 294 293 291 290 290 291 291 291 291 291 292 291 291 290 290 291 291 291 291 291 290 287 286 284 281 281 281 280 280
295 294 293 291 290 289 290 289 289 290 291 290 292 291 291 291 291 290 290 290 291 291 285 284 285 285 286 286 285 281 281 280
292 290 289 289 289 289 288 288 289 288 289 290 291 290 290 290 290 290 289 288 290 285 285 285 284 283 286 286 286 282 281 280
289 288 288 287 287 287 288 287 287 288 288 289 289 289 289 289 288 287 285 285 287 288 284 283 282 283 285 284 282 278 277 278

GFSFLT1_sfc_thetae_036.txt.gz
Theta_e
308 311 316 317 319 321 322 323 321 316 315 313 309 308 305 305 303 303 304 305 305 304 301 301 301 300 299 299 298 299 298 298
307 309 311 313 314 318 320 320 320 315 312 308 305 304 302 302 301 302 303 302 301 299 298 298 298 298 297 298 298 297 297 296
306 307 309 311 312 312 310 307 307 307 306 304 304 302 301 301 300 300 300 300 299 299 297 297 297 297 298 297 296 295 296 294
306 307 305 304 303 303 304 305 305 306 306 304 303 303 301 300 299 298 298 299 298 298 298 298 298 298 297 296 294 293 292 293
305 303 302 302 303 303 304 305 305 305 305 303 301 300 299 299 298 297 296 297 297 299 298 298 297 297 295 295 296 293 292 290
303 303 304 302 302 302 302 304 305 305 305 303 302 300 299 298 297 296 296 296 297 298 298 297 296 296 295 294 293 292 292 290
303 304 304 302 302 301 302 304 303 304 303 303 302 300 297 296 295 295 295 294 294 296 296 295 295 294 294 293 292 292 291 290
302 304 303 303 304 304 303 302 302 302 301 301 300 299 298 297 296 294 293 293 292 292 293 294 294 294 293 292 291 291 290 288
302 305 305 302 302 301 301 302 301 300 300 299 299 298 296 296 295 294 293 292 292 293 293 293 293 293 292 292 291 290 290 288
299 300 300 300 299 299 300 300 300 299 298 298 298 297 296 295 294 292 292 292 294 293 292 292 292 292 292 292 290 291 290 289
297 298 298 299 297 297 298 298 297 297 295 294 294 294 294 294 293 292 292 292 292 291 291 291 291 293 292 292 291 289 289 288
295 296 296 296 295 296 296 295 295 294 293 293 292 292 293 293 292 292 292 292 291 291 291 291 292 290 291 291 290 288 287 284
294 295 295 295 295 295 295 295 296 293 292 292 291 291 291 291 291 292 291 290 290 290 290 289 288 288 289 287 286 286 283 282
294 294 294 294 296 295 295 293 293 292 292 291 290 290 290 289 289 290 290 289 290 289 289 289 289 290 289 287 285 283 282 282
294 294 294 295 296 293 290 290 290 290 290 290 290 289 289 289 289 289 289 290 289 288 290 291 290 288 286 285 283 282 282 282
294 293 293 294 290 289 289 289 289 289 290 290 289 290 289 289 289 289 289 290 290 291 292 291 287 285 284 282 282 282 281 280
293 293 291 290 289 288 288 288 288 288 289 289 290 290 290 289 288 288 288 288 288 291 286 285 284 285 286 286 286 282 282 281
293 290 288 288 287 288 286 287 287 286 288 289 289 289 288 288 288 287 285 284 285 287 285 285 283 283 286 286 283 280 278 278
289 287 287 287 286 285 286 286 285 286 287 287 287 287 286 287 286 286 284 287 288 288 284 281 280 282 284 283 282 278 277 277

GFSFLT1_sfc_thetae_039.txt.gz
Theta_e
314 319 322 324 325 324 325 324 321 316 313 313 314 311 310 310 310 309 311 310 310 309 308 308 308 307 307 307 307 307 307 306
316 318 322 325 327 327 322 322 321 317 313 312 309 310 308 308 309 309 309 308 308 309 307 307 307 305 306 306 305 304 303 304
314 316 319 323 324 325 325 320 319 317 315 314 314 311 310 309 308 308 308 307 307 306 307 306 306 304 304 304 304 301 302 303
311 312 314 316 318 319 322 320 317 317 315 313 311 311 309 307 307 307 306 306 306 306 306 307 306 305 302 303 303 301 298 301
309 308 308 310 311 312 313 313 313 313 313 313 312 312 310 309 308 306 306 305 305 306 306 306 306 305 303 302 303 302 301 297
308 308 309 310 311 311 312 312 312 312 313 313 312 309 308 307 306 305 306 306 304 305 305 305 305 304 304 303 302 302 302 298
308 309 309 309 310 311 312 311 310 311 312 311 311 309 307 306 306 306 305 304 303 304 304 304 304 304 303 302 302 301 300 299
308 308 308 309 309 309 310 311 309 309 310 310 310 309 308 307 306 305 303 303 303 303 303 303 302 303 302 302 301 300 299 298
308 309 309 310 310 310 309 309 307 307 308 307 308 307 308 306 304 303 303 302 302 303 302 302 301 301 301 300 300 299 299 298
308 309 309 308 307 307 308 308 307 306 305 306 306 305 304 303 303 303 302 302 300 301 301 300 300 300 300 300 299 297 297 296
305 305 305 305 305 305 306 306 304 304 303 302 301 301 300 301 301 301 301 301 300 300 300 300 299 299 299 298 297 296 295 295
302 302 302 302 302 303 303 302 300 300 300 300 300 300 299 300 299 299 299 299 298 298 298 298 298 296 295 295 294 293 292 292
300 300 300 301 301 302 300 300 299 299 299 299 298 298 298 297 297 297 298 297 298 297 297 296 295 294 293 292 291 291 289 288
299 299 299 300 298 298 297 298 297 297 297 297 297 297 296 296 296 297 296 296 295 296 296 295 293 294 292 292 291 289 288 287
299 299 299 299 298 296 295 295 296 296 296 296 296 296 296 296 296 296 295 295 294 294 296 295 294 292 292 290 288 288 288 288
298 297 297 297 295 294 295 295 295 295 294 295 295 296 296 295 294 295 294 294 293 294 294 293 291 290 289 288 288 288 287 286
297 296 295 293 293 293 293 293 293 293 293 294 295 295 294 293 293 293 293 292 291 291 289 289 288 288 287 286 286 286 284 282
296 294 293 293 293 292 292 292 292 291 291 293 293 293 292 292 292 291 291 291 291 289 289 288 287 287 285 285 283 283 282 281
295 293 292 292 292 291 291 291 291 290 291 291 291 291 291 290 290 289 290 290 288 289 287 286 286 285 283 283 281 282 281 281

GFSFLT1_sfc_thetae_042.txt.gz
Theta_e
322 326 327 328 332 332 331 331 322 319 321 320 317 315 313 313 313 314 314 314 315 316 315 315 313 310 308 308 307 307 307 307
325 327 329 329 329 330 330 328 325 323 326 320 315 312 314 315 316 315 315 315 315 315 312 310 309 307 307 307 306 305 304 306
323 327 329 329 328 329 329 330 331 329 325 322 320 318 318 317 316 315 314 314 312 310 310 308 308 306 307 306 306 303 303 304
323 325 328 329 329 330 329 328 327 324 322 320 319 318 316 314 314 313 313 312 311 309 309 308 308 307 305 306 305 304 300 302
319 319 322 324 326 326 323 323 322 321 321 319 318 317 315 316 318 315 314 311 309 308 308 308 308 307 306 306 304 304 303 299
314 314 316 317 319 320 321 320 319 319 319 318 319 317 316 316 315 312 313 312 309 307 307 308 308 307 307 306 305 304 303 300
313 315 315 316 318 319 319 318 317 318 319 318 317 315 313 312 312 309 309 308 308 307 307 307 307 307 306 305 305 303 302 301
313 313 314 315 316 317 318 317 316 317 317 316 315 313 310 308 307 306 306 305 305 306 307 306 305 305 305 305 303 302 301 299
313 314 315 315 316 317 316 316 315 315 314 313 311 308 310 308 307 307 306 305 306 306 306 305 304 303 303 303 302 302 301 300
314 315 315 316 316 317 317 315 313 312 311 310 308 310 308 307 307 307 307 306 304 302 302 301 301 301 302 302 301 300 299 298
314 314 315 315 315 314 315 313 310 308 307 306 306 306 306 307 308 305 302 301 300 300 300 299 299 300 301 301 299 299 297 296
313 313 313 312 311 311 310 308 306 306 304 304 305 305 305 305 303 300 300 300 299 299 298 299 298 298 299 298 297 297 295 295
311 310 310 308 308 308 307 307 305 304 302 303 302 302 302 300 299 299 300 299 299 298 298 297 298 297 297 296 295 295 293 292
308 307 306 306 306 305 304 304 303 301 301 301 301 300 299 298 298 299 299 298 298 297 297 297 297 297 295 294 294 294 293 292
306 306 306 305 304 303 300 301 301 300 299 299 298 298 299 298 299 298 298 297 297 296 296 296 295 295 294 293 292 292 292 292
305 305 305 304 302 301 301 301 299 299 297 297 297 298 299 298 297 297 297 296 296 295 295 294 294 294 292 292 291 291 290 290
305 304 303 301 300 300 299 297 298 298 296 295 297 298 297 297 296 296 296 295 295 295 292 292 291 291 286 285 286 289 289 287
303 302 300 299 298 298 296 297 297 296 295 295 296 296 295 295 295 294 294 294 294 292 292 291 290 290 285 284 283 287 287 286
303 300 297 296 297 296 296 296 295 294 293 294 294 294 294 294 294 293 293 293 291 292 291 290 290 289 283 282 282 287 286 285

GFSFLT1_sfc_thetae_045.txt.gz
Theta_e
323 325 326 326 332 334 333 331 329 327 327 326 324 321 318 318 316 316 317 317 318 318 317 316 313 311 310 309 308 307 306 305
325 327 328 328 333 333 330 328 327 330 330 324 322 319 318 318 318 318 318 318 317 317 314 312 311 309 309 309 307 306 305 305
325 328 330 331 331 331 329 329 330 331 329 326 324 320 319 319 318 318 318 317 315 313 312 311 310 308 308 308 307 304 304 305
325 327 328 328 326 328 329 330 329 327 324 322 321 320 319 317 316 316 316 315 313 312 311 310 309 308 306 307 306 304 301 303
325 327 327 329 330 331 330 326 323 322 322 320 319 316 313 316 319 317 316 314 312 310 310 310 309 308 307 306 305 305 304 300
323 324 325 326 327 325 323 322 321 322 321 321 319 318 319 318 317 315 314 314 311 309 309 309 308 307 307 307 307 305 303 300
318 320 320 320 324 323 322 321 319 321 321 321 319 317 315 314 313 312 310 310 308 308 308 308 308 306 305 304 305 304 302 301
315 315 315 317 319 320 320 319 318 320 320 320 318 316 313 310 309 308 306 306 306 307 308 307 305 305 303 304 303 303 302 300
315 315 316 317 318 319 319 319 317 319 318 316 315 312 311 310 308 307 307 306 306 307 306 304 302 302 301 303 302 302 302 301
315 316 317 318 318 319 320 318 316 316 315 313 312 310 308 307 307 308 307 307 305 303 302 301 301 300 300 301 301 300 301 300
315 316 317 318 319 320 320 319 316 314 312 311 309 307 306 307 307 306 304 303 301 301 300 300 300 300 300 300 299 299 298 298
315 317 318 319 319 318 318 316 313 310 309 308 306 306 306 306 304 302 301 301 300 299 299 299 298 298 299 299 298 297 296 296
316 317 317 317 315 315 314 312 310 308 307 304 305 305 304 303 301 300 301 300 300 299 298 298 298 298 298 297 294 295 295 294
316 316 315 314 313 312 311 309 308 306 302 304 304 303 302 300 299 300 300 299 299 298 298 297 297 297 297 296 294 295 294 293
314 313 312 312 311 310 308 306 305 302 303 302 301 300 300 300 300 299 299 298 298 297 297 297 296 295 295 294 294 292 292 292
312 311 310 310 309 307 305 305 304 303 300 299 299 299 300 300 299 298 298 298 297 297 296 296 295 294 292 292 292 292 291 291
311 310 310 308 306 304 304 303 302 300 299 298 297 298 298 298 297 297 297 296 296 296 295 294 292 292 286 286 286 289 289 288
310 309 309 308 306 303 302 301 300 298 297 296 296 297 296 296 296 296 295 295 295 295 293 291 290 291 286 284 284 287 288 288
309 309 308 305 304 301 301 299 298 297 295 295 295 295 295 295 295 294 294 295 294 293 292 291 290 290 285 283 282 286 288 288

GFSFLT1_sfc_thetae_048.txt.gz
Theta_e
317 320 323 329 332 331 332 329 327 325 325 326 324 322 318 317 316 315 316 316 317 316 315 312 310 308 306 305 304 304 303 301
322 323 324 326 332 331 330 326 326 325 327 323 320 318 316 316 316 316 317 316 316 313 312 309 308 307 305 305 303 301 301 301
322 324 327 328 330 329 329 328 327 327 329 324 323 318 317 316 317 317 317 316 313 312 309 308 308 305 305 304 303 301 300 300
321 324 326 330 329 328 327 328 327 329 326 323 321 319 317 315 315 314 315 314 312 310 309 308 306 305 303 303 302 301 297 298
323 324 325 327 326 328 329 329 329 326 322 319 317 314 312 314 314 314 313 313 311 309 308 306 305 305 303 302 302 301 299 296
322 324 325 326 328 328 329 328 323 321 321 320 318 317 314 316 315 314 313 313 312 308 307 306 304 304 303 302 301 299 298 296
322 325 326 326 329 327 323 320 319 320 320 320 319 318 314 313 311 311 310 310 308 307 307 305 304 303 302 300 299 299 298 297
320 321 321 320 320 321 321 319 317 319 320 319 318 316 313 310 308 307 305 305 304 305 305 303 302 301 299 299 298 297 297 296
316 317 316 317 319 319 319 318 317 318 319 318 316 314 311 309 306 306 305 304 304 305 302 301 300 299 298 298 296 296 296 296
314 315 315 316 317 319 320 317 317 318 316 315 312 310 308 306 306 306 305 305 302 300 299 299 298 298 298 297 296 296 297 295
314 314 315 316 317 318 320 319 315 315 314 312 310 308 306 307 305 304 302 300 299 299 298 298 297 297 296 296 295 295 293 293
314 315 316 317 317 318 319 318 313 312 311 309 307 305 306 305 304 301 299 299 298 298 297 297 296 296 296 295 295 293 292 292
315 315 316 315 317 316 317 317 312 310 308 305 304 305 305 304 301 299 299 298 298 298 297 296 296 296 295 294 292 292 292 291
315 315 315 315 316 315 314 313 310 306 304 304 304 305 303 300 298 298 299 298 298 297 296 296 295 295 294 293 293 292 292 290
314 314 315 315 314 313 311 309 306 305 304 303 302 302 300 299 298 299 298 298 297 296 296 295 295 293 293 293 293 290 290 290
313 314 314 313 312 311 309 306 305 304 304 301 300 300 300 299 299 298 298 297 296 296 295 295 294 292 290 288 289 288 288 287
312 313 312 311 310 308 305 305 304 304 301 299 299 298 298 298 297 297 296 296 295 295 294 293 291 291 286 286 285 284 286 285
311 311 311 310 308 306 303 303 302 299 299 298 297 297 296 296 296 295 295 294 294 293 291 290 291 290 287 285 284 283 283 284
311 311 310 308 306 305 303 300 299 299 297 296 295 295 295 295 295 294 293 293 292 291 290 290 290 290 287 285 283 281 283 284

GFSFLT1_sfc_thetae_051.txt.gz
Theta_e
315 320 322 323 324 327 324 324 321 319 319 319 318 316 313 311 310 310 311 312 313 311 308 305 305 303 302 301 300 300 299 298
312 315 323 324 326 326 324 322 321 321 319 317 315 312 310 309 309 311 311 312 310 307 306 305 303 302 301 301 299 298 297 297
316 317 324 325 325 325 323 322 321 321 323 319 315 312 309 310 310 311 311 309 308 307 304 303 302 301 300 299 298 297 296 297
316 318 320 324 323 323 323 323 322 322 325 319 315 311 310 308 308 309 309 309 308 306 305 303 301 301 299 298 297 296 294 295
317 318 321 323 322 324 325 324 322 323 324 317 312 307 307 307 308 308 308 308 307 305 304 302 301 301 299 298 300 297 295 292
317 320 322 323 324 324 322 323 323 323 317 314 310 308 308 309 310 310 308 307 306 305 303 301 300 300 299 297 295 295 295 293
319 322 323 323 322 321 321 322 321 314 313 312 311 309 310 310 309 309 307 307 304 303 302 300 299 298 296 295 294 294 293 293
319 321 320 321 319 321 322 319 312 312 313 312 311 308 307 306 304 302 300 301 301 301 299 298 296 295 295 294 293 293 292 292
317 319 320 321 316 313 316 312 312 313 313 311 309 307 304 302 302 303 302 302 302 297 296 295 295 295 295 294 293 292 292 292
311 311 313 312 312 312 311 311 311 313 312 309 306 303 301 302 302 302 302 300 299 296 294 294 294 294 294 293 292 292 291 290
308 309 311 312 312 313 312 311 312 312 311 308 306 302 302 302 303 302 300 298 297 296 294 294 294 294 293 293 291 291 290 289
307 307 311 312 312 312 312 311 312 310 308 305 302 302 304 303 302 300 297 297 296 295 294 294 294 293 293 292 291 291 290 289
308 308 309 311 313 315 314 312 309 307 303 303 305 304 303 303 301 298 297 296 296 295 294 294 294 293 293 292 289 290 289 289
308 308 310 313 314 314 314 309 304 304 304 304 304 303 303 300 298 297 297 295 295 294 295 294 293 293 291 291 290 290 289 289
309 308 311 313 313 312 310 304 303 303 303 304 302 302 299 297 297 296 295 295 294 294 295 294 293 291 291 290 290 288 288 288
307 308 309 309 309 307 304 303 303 303 302 300 296 297 297 297 296 295 295 295 295 294 294 293 291 290 289 287 287 286 285 285
307 309 309 308 307 303 302 302 302 302 297 297 297 297 297 295 294 294 294 294 293 293 292 291 289 290 288 287 285 283 283 283
306 307 307 306 303 302 301 301 299 297 296 297 296 296 294 294 294 293 292 292 292 291 290 289 288 288 288 287 285 281 281 281
305 303 301 301 301 301 299 298 297 296 295 294 294 293 293 293 293 293 291 291 290 289 288 288 288 289 289 288 285 280 280 281

GFSFLT1_sfc_thetae_054.txt.gz
Theta_e
317 317 319 320 321 324 321 320 318 317 316 316 314 313 312 311 309 309 310 310 311 308 304 303 302 301 300 299 297 298 297 296
316 317 318 319 321 322 321 319 317 317 316 316 314 310 309 308 308 310 310 310 310 305 303 302 301 300 299 299 297 297 296 296
315 317 317 319 322 321 320 319 318 318 319 316 314 311 308 307 308 309 310 308 306 304 302 301 300 299 298 297 297 296 295 295
313 317 318 320 321 321 320 320 319 319 320 318 312 309 307 306 306 306 306 307 307 304 302 301 300 299 297 297 296 294 293 293
316 318 319 320 321 322 321 321 320 320 322 318 310 307 306 306 306 307 306 307 306 304 303 301 300 299 297 297 297 294 293 290
315 319 321 322 322 322 322 322 322 321 322 317 311 306 307 306 307 306 306 305 304 303 301 300 299 298 296 294 293 293 292 291
315 320 322 321 322 322 322 322 321 320 320 314 311 308 307 306 306 305 305 305 302 302 300 298 297 295 294 293 292 291 290 290
316 319 320 321 321 322 322 320 319 315 313 312 310 308 307 307 306 304 302 300 301 300 298 298 296 295 295 293 291 291 290 289
317 318 319 319 320 319 321 320 314 310 310 309 307 306 304 303 304 303 302 301 299 298 296 297 296 296 294 292 291 290 291 290
316 317 318 318 317 316 316 314 311 310 309 306 304 303 302 304 303 302 300 299 298 297 296 296 294 292 292 292 290 290 289 288
313 315 315 314 314 310 309 312 312 311 308 306 304 303 302 304 304 302 299 298 298 297 295 294 293 292 292 292 291 290 289 289
310 312 314 313 312 310 309 309 310 309 306 303 303 304 304 303 302 299 298 298 297 296 295 293 293 293 294 292 290 291 290 289
309 310 311 310 311 311 310 311 311 306 303 302 304 304 305 303 300 299 299 296 296 295 294 293 293 293 293 291 289 289 289 288
307 308 309 310 311 311 309 306 302 302 303 303 303 302 303 301 300 298 297 295 293 293 293 293 293 293 290 290 290 290 289 288
307 306 308 310 310 308 305 304 304 305 305 304 302 303 303 298 296 295 295 295 292 293 294 293 293 290 290 290 289 287 287 287
306 305 306 309 309 305 303 304 304 305 302 299 300 297 296 296 296 293 294 293 293 294 294 292 291 290 289 288 287 285 284 284
305 308 308 308 305 302 302 303 302 301 296 295 296 296 296 295 293 293 292 293 293 292 291 291 288 290 289 288 286 283 283 282
306 307 307 305 302 303 300 298 296 294 294 295 296 296 294 293 293 293 292 291 291 290 290 289 288 288 289 289 287 282 281 281
300 299 298 298 298 295 295 295 295 293 292 293 294 293 292 293 293 292 290 290 289 289 288 288 287 288 289 289 288 281 280 280

GFSFLT1_sfc_thetae_057.txt.gz
Theta_e
318 322 322 319 319 322 321 319 317 316 316 315 313 312 311 310 309 310 310 309 308 304 303 302 301 300 299 298 296 296 296 295
319 321 317 317 319 319 318 317 315 316 314 312 310 309 308 307 308 309 310 309 307 303 301 300 300 299 298 297 296 295 294 294
316 316 314 316 319 319 318 318 316 316 315 314 313 309 308 307 307 308 309 308 305 303 301 299 300 299 297 296 296 294 293 293
312 312 313 315 318 318 319 318 317 316 317 314 309 307 306 305 305 305 306 306 305 303 301 300 298 298 296 295 294 294 292 292
312 313 313 315 319 320 320 319 317 317 318 314 309 307 304 305 305 305 305 305 304 303 301 300 298 298 296 295 296 294 292 290
311 313 314 316 319 319 319 319 318 319 319 317 311 306 305 305 305 305 304 303 303 302 300 299 298 297 294 293 292 291 292 291
312 315 316 318 319 320 318 319 319 319 319 316 311 307 305 305 304 303 303 302 300 300 299 298 297 294 293 292 291 291 289 289
312 315 317 318 319 320 319 319 319 319 319 316 312 308 307 306 305 305 301 298 299 298 299 298 297 295 294 294 292 290 289 288
314 317 318 318 320 321 320 320 319 318 316 314 310 308 307 305 304 303 301 300 298 298 299 297 297 297 295 293 291 290 290 288
315 317 319 319 321 319 319 319 318 314 312 309 306 306 303 302 303 302 299 299 300 299 297 297 296 295 293 292 290 289 289 288
314 316 317 318 319 319 318 317 315 310 308 306 304 303 303 302 301 299 299 299 299 297 296 296 294 294 292 292 291 289 289 288
314 316 317 318 317 313 315 312 310 307 305 302 301 301 302 301 299 299 299 299 298 298 297 295 294 292 292 291 290 289 288 288
313 315 315 313 312 312 311 311 309 307 301 301 302 302 302 301 300 298 299 298 298 297 296 293 292 292 292 290 288 288 288 287
308 310 312 313 312 311 307 304 300 302 303 302 303 303 302 299 298 299 298 297 296 294 292 292 292 291 290 289 288 288 288 288
304 306 308 310 309 306 303 302 302 302 303 303 302 301 301 301 298 295 295 295 293 293 293 292 292 290 289 289 289 287 286 286
304 303 305 306 305 303 303 303 305 305 304 303 303 302 300 296 294 293 295 294 294 293 293 292 290 289 289 287 286 285 284 283
305 305 306 306 303 301 303 303 304 304 302 299 297 296 296 295 295 294 293 293 293 293 291 290 288 288 289 289 287 283 283 282
304 305 304 302 301 302 300 298 296 295 297 296 296 296 294 293 293 293 293 292 291 290 290 288 287 287 289 290 289 283 282 281
296 297 297 296 294 294 294 294 295 295 294 293 293 293 293 294 295 294 291 290 288 287 287 287 286 287 289 289 289 284 281 280

GFSFLT1_sfc_thetae_060.txt.gz
Theta_e
317 319 318 319 317 320 321 319 317 315 315 314 313 313 313 313 313 311 310 308 307 306 303 301 300 299 298 297 296 296 295 295
317 319 319 317 317 318 318 316 315 316 315 312 310 309 309 309 309 309 309 308 305 303 301 300 299 298 297 296 296 295 294 294
316 317 316 315 317 319 317 317 315 317 317 312 312 309 308 307 307 308 308 306 303 302 300 299 299 297 297 296 296 294 293 293
315 316 315 315 316 318 318 318 316 317 316 313 308 307 307 305 305 305 306 307 304 302 300 299 298 297 296 295 294 293 291 292
314 314 312 313 315 317 318 318 316 315 316 312 309 308 305 305 305 305 305 305 303 301 300 299 297 297 295 295 295 293 291 289
310 313 313 313 315 316 317 317 316 316 316 314 311 308 308 307 305 305 304 302 302 301 299 298 297 296 295 295 294 293 292 290
309 310 311 311 314 315 316 316 316 317 317 315 313 312 308 307 304 304 302 300 299 298 298 297 295 295 296 294 292 292 290 290
305 308 310 313 315 316 317 317 316 317 317 316 314 313 309 306 304 304 300 297 296 296 296 296 297 297 296 295 293 292 291 290
305 309 312 314 316 317 318 318 319 318 318 317 316 313 308 305 305 305 300 298 297 297 299 298 298 297 296 294 294 292 291 289
307 310 314 315 316 317 319 319 319 318 319 317 313 310 307 304 302 301 299 298 298 299 296 297 297 296 295 294 291 290 289 288
308 312 315 317 318 319 320 319 319 318 316 313 312 308 304 303 302 299 298 299 299 297 297 297 296 295 294 293 290 289 288 288
309 312 315 316 317 318 318 318 317 311 311 308 303 301 300 301 300 299 300 299 298 298 297 297 295 295 291 290 289 289 288 288
310 311 313 314 315 315 315 314 313 309 302 300 300 300 300 300 299 300 300 299 299 298 298 296 295 292 290 289 288 289 288 287
309 310 312 314 315 312 311 309 306 303 302 301 301 301 300 299 299 299 300 299 298 297 296 294 293 291 290 290 289 289 288 288
306 307 308 310 309 306 304 302 304 304 303 303 302 301 301 299 300 299 298 297 296 295 294 294 292 291 291 290 289 288 287 287
304 304 305 306 305 302 301 301 302 303 303 302 302 302 301 299 296 296 296 296 295 294 293 292 292 291 289 288 287 286 284 284
303 302 304 304 302 302 302 302 301 302 301 300 300 299 297 296 296 295 294 293 293 293 292 291 290 289 289 290 287 284 284 283
301 301 301 300 299 301 299 298 298 297 297 297 297 296 294 294 293 294 294 294 294 292 291 289 288 287 289 290 289 285 283 283
294 294 293 292 293 293 294 295 294 295 294 293 293 293 294 295 295 295 294 292 290 287 287 286 285 286 289 289 289 285 283 282

GFSFLT1_sfc_thetae_063.txt.gz
Theta_e
320 322 323 325 327 327 329 330 329 328 327 326 327 328 327 327 327 325 321 319 317 315 312 311 311 309 308 308 307 307 306 306
321 322 323 323 326 326 327 327 327 325 323 321 321 323 323 322 323 321 319 317 316 312 311 310 310 309 308 308 307 306 305 306
319 321 323 322 323 325 325 326 324 325 325 324 324 323 321 321 320 319 318 316 313 311 311 309 309 307 307 307 307 305 305 305
319 319 321 322 321 323 324 325 325 325 326 323 319 318 317 316 316 315 314 312 310 311 310 309 309 308 307 307 307 304 302 302
321 320 320 322 322 325 325 325 324 324 324 323 320 321 317 317 316 313 311 311 310 310 309 309 308 307 307 306 305 304 302 298
320 321 322 323 323 324 325 325 324 324 323 323 322 320 319 316 314 312 311 311 311 309 309 308 307 307 306 305 303 300 299 298
320 322 322 321 322 323 324 323 323 323 322 322 321 319 315 313 313 311 311 311 310 308 307 307 307 305 303 300 302 298 298 297
316 316 317 318 319 322 323 322 322 321 320 320 319 319 316 314 314 311 310 309 307 306 306 305 304 304 302 300 300 299 295 296
314 315 316 317 319 321 321 321 322 321 319 320 319 318 317 316 311 312 311 308 306 306 305 304 304 303 299 298 299 297 298 299
311 313 316 317 318 320 321 322 322 322 321 320 320 320 318 314 312 314 312 309 305 304 304 304 301 301 299 297 297 296 299 299
307 310 314 317 319 321 322 323 322 322 322 322 321 320 318 315 312 311 309 305 304 303 302 299 300 299 298 298 296 298 298 298
310 313 316 319 321 321 322 323 323 322 323 321 320 321 317 313 310 309 306 304 302 299 301 301 298 297 297 295 297 298 296 297
314 315 318 319 320 322 322 322 322 323 322 320 317 313 309 307 305 304 304 302 301 301 299 299 299 296 296 296 297 296 296 295
314 316 317 319 321 321 320 319 319 317 313 310 307 305 304 304 303 303 304 301 300 299 298 297 297 298 296 297 297 296 296 295
314 315 316 317 318 318 318 315 312 308 307 307 306 305 304 303 302 301 300 301 298 297 298 298 296 297 297 296 296 296 295 295
310 311 314 315 313 310 309 309 308 308 306 305 304 304 304 301 299 299 300 298 298 299 297 296 297 296 295 296 296 295 294 294
307 308 310 309 307 307 306 306 307 307 306 303 302 301 300 297 298 297 296 296 295 295 294 294 293 296 292 290 292 295 293 292
303 304 305 306 305 305 304 304 304 304 303 301 299 298 296 295 294 295 295 297 296 295 296 297 296 296 290 290 290 294 293 293
298 299 299 300 301 301 301 301 300 298 296 294 294 295 296 296 297 297 296 296 296 296 295 294 293 293 289 289 289 293 294 293

GFSFLT1_sfc_thetae_066.txt.gz
Theta_e
323 326 326 325 327 328 330 331 333 335 335 332 329 328 329 334 335 334 332 331 328 326 322 320 319 317 315 313 312 312 312 313
324 325 329 326 327 328 329 330 333 334 332 327 325 326 330 333 333 334 332 330 328 325 321 319 319 316 315 315 312 311 310 313
321 324 326 328 328 330 330 331 333 334 331 328 326 327 329 331 332 331 330 327 325 322 321 318 318 315 314 313 312 310 311 311
323 322 325 326 326 328 330 332 333 333 331 328 328 330 330 329 328 328 328 324 324 320 318 319 317 315 313 314 313 311 308 308
323 324 324 326 327 328 331 332 332 333 332 328 326 325 324 327 328 328 322 322 319 317 318 318 316 315 314 313 312 311 308 304
323 324 325 327 328 329 329 330 332 333 333 332 329 327 328 330 328 326 323 319 317 316 317 317 316 315 315 313 311 308 304 305
324 325 326 327 331 331 331 329 329 332 333 333 331 330 329 326 325 322 317 317 313 315 315 316 316 315 313 311 309 306 304 302
324 324 326 326 328 330 330 330 328 331 331 331 331 331 330 326 324 321 318 315 314 315 315 315 314 314 312 307 307 302 302 300
323 325 326 327 327 329 329 329 328 329 328 330 330 328 326 325 323 321 316 313 317 317 315 314 313 311 308 302 306 304 300 299
319 323 326 327 328 327 329 329 329 330 328 329 327 326 322 322 323 320 314 315 316 315 314 313 311 307 302 302 301 299 299 301
316 318 322 325 327 328 330 329 328 329 329 327 327 326 326 324 322 318 314 317 317 313 312 309 301 302 302 301 299 298 299 301
316 317 318 321 324 326 327 327 327 327 328 328 326 324 324 323 321 317 315 315 314 310 307 302 301 299 299 298 297 297 298 300
319 319 320 321 322 324 325 326 326 327 328 327 323 322 321 314 312 310 310 307 305 301 302 299 299 297 297 296 297 300 300 299
319 321 321 323 324 325 325 327 326 327 324 320 313 310 308 306 305 304 303 301 300 301 301 298 297 297 298 299 301 300 300 299
318 320 322 324 325 325 324 320 319 316 314 310 307 306 305 304 304 303 301 302 300 299 299 298 299 299 299 301 300 300 300 299
314 319 322 323 323 323 323 317 311 311 308 307 306 306 305 303 302 301 301 299 299 299 299 298 299 299 298 298 300 300 299 298
313 316 319 318 317 317 316 315 311 310 307 305 304 303 303 303 300 299 300 299 297 296 296 296 296 297 295 292 293 298 298 297
312 314 315 314 314 314 313 312 311 308 305 304 304 304 301 299 297 295 296 296 297 296 298 299 299 301 293 292 290 296 296 296
308 310 310 311 312 311 310 310 309 307 305 304 303 300 297 297 297 297 298 299 299 301 300 298 298 296 291 290 289 295 295 296

GFSFLT1_sfc_thetae_069.txt.gz
Theta_e
323 324 323 320 323 323 325 328 330 332 334 331 327 327 327 328 331 333 335 334 332 330 329 327 323 321 320 319 317 314 314 313
323 323 324 321 323 322 325 328 331 332 330 327 324 322 324 327 332 333 334 333 332 331 327 324 323 321 321 318 315 314 312 313
321 324 323 324 324 327 327 328 330 331 329 327 325 324 325 327 334 333 334 332 331 329 327 324 323 321 320 317 316 313 314 313
321 322 325 324 325 327 327 328 329 331 331 328 326 326 326 326 330 330 331 331 331 329 327 325 323 322 318 317 315 315 311 312
322 321 323 326 328 330 330 330 330 332 332 329 326 322 322 325 329 329 328 330 329 326 325 324 324 322 319 317 316 316 314 310
321 323 323 325 328 329 331 330 331 331 333 331 327 326 326 328 330 329 329 327 326 324 323 323 323 320 320 320 317 315 312 309
322 323 325 325 331 331 330 330 330 332 333 333 331 328 328 326 330 327 327 325 323 320 320 322 322 317 319 317 316 314 310 308
322 321 322 324 327 329 330 329 328 331 332 333 333 332 331 330 329 327 325 322 320 319 319 318 319 317 318 316 314 309 305 305
322 324 324 324 325 328 330 329 328 329 331 333 334 334 332 333 330 328 325 322 322 320 316 315 315 315 317 315 309 306 303 304
319 323 325 327 327 329 333 330 330 330 332 334 333 334 332 331 330 328 325 323 320 318 316 313 313 313 311 306 302 299 300 301
319 321 324 327 329 330 333 332 329 330 331 332 332 332 331 329 325 325 323 321 317 315 314 312 310 304 303 302 300 300 299 299
318 319 323 326 329 330 331 331 330 329 330 332 331 330 328 327 324 324 322 318 315 312 308 304 303 300 299 299 298 298 297 297
319 320 320 321 324 327 329 330 330 330 330 330 329 327 325 323 321 315 311 304 305 302 302 300 300 299 298 297 296 298 298 298
317 321 321 322 323 325 326 328 328 329 329 328 321 315 312 309 306 304 303 302 302 302 301 300 298 297 297 298 299 299 301 301
316 319 321 324 325 326 326 327 328 325 320 317 310 308 306 305 303 303 303 304 302 301 301 299 299 299 299 299 300 301 301 301
314 318 321 324 326 327 322 317 315 313 310 308 306 306 305 305 302 302 301 301 301 300 299 299 299 299 299 300 301 300 300 300
313 316 322 323 324 324 316 313 311 310 308 306 306 304 303 302 302 301 301 300 300 299 298 298 298 298 295 294 295 299 298 298
314 318 321 321 320 318 313 311 309 306 305 305 305 305 302 301 300 299 297 297 297 297 300 300 300 301 295 293 291 296 295 296
315 317 317 318 318 316 313 311 308 307 306 305 304 302 299 299 298 297 297 299 301 302 302 301 299 298 292 290 289 294 294 294

GFSFLT1_sfc_thetae_072.txt.gz
Theta_e
321 320 319 318 318 319 317 317 319 320 321 324 325 325 324 325 328 329 331 331 331 328 325 323 322 319 317 315 314 312 309 309
320 321 322 320 319 318 317 318 319 323 323 322 322 321 322 323 326 329 331 331 331 327 327 324 320 318 316 317 313 310 307 308
319 318 319 319 318 318 318 320 325 327 327 325 323 322 323 323 327 330 331 331 331 329 327 322 320 318 319 314 311 308 309 310
318 319 317 319 318 319 321 324 327 328 328 326 324 323 322 321 328 329 330 331 330 327 326 323 320 320 316 314 312 310 307 307
319 319 319 318 318 322 324 326 327 329 328 325 322 319 317 321 327 329 328 329 329 328 326 324 322 320 317 314 315 311 310 305
318 320 321 322 323 325 326 327 327 326 328 327 324 321 321 322 324 327 326 327 327 326 324 322 321 320 318 315 313 312 310 304
320 321 322 324 325 326 328 328 327 328 329 327 327 323 323 323 326 325 325 325 324 324 322 321 319 319 316 315 314 313 305 303
319 320 320 321 323 326 328 328 326 328 330 328 328 328 325 324 326 325 324 322 320 321 319 318 318 317 315 314 313 308 303 300
319 319 322 322 323 326 326 327 326 328 329 330 330 329 329 327 328 326 325 323 320 318 318 317 317 315 314 312 306 305 302 302
319 321 321 323 324 326 327 327 326 327 329 330 330 331 330 329 328 328 324 323 321 319 317 315 313 311 308 305 303 300 300 300
318 319 323 323 324 326 328 328 328 328 328 330 330 331 331 331 329 324 322 322 319 317 313 312 306 304 303 301 300 299 298 298
317 319 321 325 325 324 328 329 329 329 329 329 330 330 327 324 323 323 321 319 316 312 306 303 301 300 299 299 298 298 297 297
317 319 320 321 326 327 327 329 329 329 328 330 329 328 324 321 320 316 314 312 308 305 303 300 300 300 300 298 296 297 296 296
316 318 318 319 321 323 327 329 329 330 326 325 322 318 312 309 306 306 306 305 302 302 302 300 299 298 297 297 297 298 298 298
314 317 319 321 322 323 324 325 324 322 320 316 311 309 307 305 304 305 304 303 302 300 300 299 299 298 298 298 299 299 299 299
312 313 319 322 323 322 320 319 317 315 311 308 306 305 304 303 304 304 303 302 301 300 299 298 299 299 300 299 299 299 298 298
313 314 320 323 321 316 313 311 310 310 306 304 304 303 303 302 301 301 300 300 299 298 298 298 298 299 295 294 293 295 296 294
314 316 322 322 316 314 310 308 308 306 304 304 304 303 302 301 301 300 299 298 298 297 297 298 298 298 295 293 291 292 291 291
316 320 320 317 314 312 309 307 306 305 304 304 303 301 300 299 298 297 296 297 297 298 299 299 299 293 290 290 288 290 289 290

GFSFLT1_sfc_thetae_075.txt.gz
Theta_e
316 316 315 315 315 315 314 313 313 313 313 313 314 316 317 317 320 321 324 324 325 323 320 318 318 315 315 313 310 309 306 305
316 315 315 315 314 315 313 312 313 314 314 314 315 317 318 319 321 323 325 328 327 324 321 319 318 316 314 312 311 307 305 305
315 314 313 313 314 314 314 313 314 315 316 317 317 318 319 319 321 325 326 326 327 324 323 320 318 316 313 312 308 305 304 305
314 314 313 314 313 313 313 314 315 317 319 320 320 317 317 316 317 321 325 327 327 326 323 320 317 316 314 311 308 305 303 304
314 315 313 313 314 315 314 315 316 318 323 322 320 316 315 317 319 323 325 326 327 327 325 322 317 317 314 312 311 308 306 304
312 313 314 313 314 314 315 316 318 324 324 323 321 316 316 316 322 324 325 326 326 326 326 322 318 317 316 313 311 309 310 306
315 315 315 313 315 316 317 318 321 324 324 324 321 316 316 315 318 322 323 324 325 325 324 321 319 318 317 315 313 311 308 305
315 315 315 315 315 315 317 319 321 324 324 325 321 319 317 316 319 322 322 320 319 321 319 317 315 316 316 315 313 309 303 302
315 316 317 317 317 318 319 321 321 322 323 323 323 321 320 320 321 323 322 322 321 318 316 315 315 315 314 312 307 304 303 301
314 317 318 318 320 319 320 323 323 323 322 324 322 324 322 320 320 322 322 320 319 317 316 314 312 312 308 306 303 302 301 300
315 317 318 318 320 321 322 323 324 324 323 324 325 324 324 324 323 321 320 320 318 316 315 312 308 306 305 303 301 300 299 299
308 310 317 320 319 320 322 323 323 323 324 323 325 326 326 325 321 320 318 316 315 313 309 308 304 302 301 300 299 299 298 298
309 310 312 318 319 321 322 323 325 325 325 323 324 324 322 321 320 320 317 313 311 308 307 304 301 300 301 300 299 299 298 297
309 310 311 312 316 320 322 324 323 320 325 324 320 316 314 314 312 311 310 308 307 306 302 301 300 299 298 298 299 298 297 298
309 310 311 312 318 319 318 317 318 316 314 312 311 310 309 307 306 307 306 305 302 301 301 300 299 299 299 299 299 298 298 299
305 309 311 317 316 314 312 310 309 309 308 306 304 305 305 304 303 302 302 301 301 300 299 299 298 298 298 298 299 298 298 297
308 311 318 317 314 310 309 307 307 307 305 304 304 304 302 301 301 301 301 300 299 299 298 297 297 299 295 295 296 293 293 291
310 318 318 314 310 308 306 306 306 304 303 303 303 302 301 301 301 300 298 297 297 297 297 297 297 297 293 293 291 290 289 288
314 314 312 310 307 306 305 305 305 304 303 303 302 301 300 300 299 298 297 297 297 296 295 295 294 291 290 289 288 287 286 285

GFSFLT1_sfc_thetae_078.txt.gz
Theta_e
314 316 316 316 316 315 315 315 315 314 315 315 314 315 316 315 315 318 320 321 322 321 319 317 316 314 312 310 309 308 305 303
313 314 315 314 315 314 312 312 313 314 313 312 311 311 313 313 314 317 320 321 322 320 318 315 315 313 313 311 309 307 305 303
312 312 312 312 313 312 311 310 311 312 312 312 311 312 315 315 315 317 320 322 323 321 319 316 316 313 312 310 309 305 304 304
311 312 311 312 312 312 311 311 311 312 313 312 314 314 314 314 315 316 320 323 325 323 321 320 317 315 312 310 308 306 304 304
312 311 310 311 311 313 313 313 311 313 314 313 313 313 312 315 315 317 321 323 324 324 323 321 317 317 313 311 309 307 307 305
312 312 312 312 313 312 312 313 313 313 315 315 315 314 316 316 315 316 321 323 324 324 324 322 318 315 315 313 311 310 310 307
313 314 313 312 314 313 312 312 313 314 315 317 318 317 317 314 314 316 319 322 323 324 324 322 321 317 315 313 311 311 310 306
313 313 312 312 312 312 312 312 312 314 317 319 320 320 318 316 314 317 318 320 321 323 323 322 320 318 315 315 313 312 308 306
311 313 313 310 311 312 312 312 313 315 316 321 322 322 320 318 316 319 320 321 322 323 323 323 317 315 314 313 308 305 304 304
313 313 313 313 310 311 312 314 315 317 318 321 323 322 320 319 318 318 322 322 322 321 321 317 314 312 309 307 305 304 305 303
313 315 315 314 315 314 315 315 315 318 320 321 322 322 322 320 318 318 320 321 319 318 316 315 312 310 307 306 304 303 301 301
313 314 316 317 317 317 316 317 318 320 321 322 322 321 321 321 318 318 317 317 317 317 315 313 310 308 305 303 302 301 300 299
312 315 315 317 318 318 319 319 320 322 323 322 322 323 321 320 319 318 318 316 317 316 311 311 308 305 302 301 299 300 299 299
305 307 310 315 317 317 319 320 321 322 322 320 318 317 319 321 321 318 319 317 312 310 309 306 303 301 300 300 300 300 299 299
306 306 309 312 316 317 317 319 321 320 316 315 312 313 313 313 313 312 312 311 307 305 304 302 301 300 300 300 300 298 298 298
305 307 309 314 312 312 312 312 311 311 310 309 306 307 307 307 306 306 305 304 303 303 302 300 300 300 300 299 299 298 298 298
305 306 315 314 311 308 309 309 308 308 306 304 304 304 304 303 303 303 301 301 300 299 298 298 297 298 294 295 297 297 295 292
309 312 315 312 309 308 307 307 307 306 305 305 305 304 302 301 301 301 300 299 299 298 298 298 298 298 294 293 291 291 287 286
313 313 308 306 307 307 306 306 305 304 304 304 303 302 300 300 300 298 298 298 298 297 297 297 295 292 291 290 288 285 284 283

GFSFLT1_sfc_thetae_081.txt.gz
Theta_e
315 316 316 316 316 317 317 316 315 315 315 314 314 314 315 318 319 321 322 321 320 318 316 314 314 312 311 309 308 306 304 301
314 315 315 315 315 314 315 314 314 314 313 312 314 316 313 314 316 319 321 321 320 319 317 315 315 313 312 310 307 306 303 301
313 312 314 314 314 313 313 313 313 314 314 313 315 315 315 315 314 317 317 318 320 319 317 315 314 312 310 309 308 305 305 302
309 311 311 312 311 311 311 313 313 314 314 312 313 313 314 313 312 311 315 318 320 320 318 316 314 313 311 310 308 306 304 302
310 309 309 310 311 313 310 310 312 314 313 310 309 310 309 307 308 311 313 318 319 321 320 317 315 314 311 310 311 307 308 303
309 310 310 311 312 312 311 310 310 311 312 311 310 309 308 309 311 312 312 315 318 320 320 319 317 315 315 312 309 308 308 307
311 311 311 310 311 311 311 310 310 310 311 311 310 310 311 312 311 312 313 314 317 319 321 321 320 318 316 313 313 310 308 308
311 310 310 310 309 310 311 310 310 311 311 312 312 312 313 313 313 313 314 315 318 320 320 320 320 320 317 314 314 312 309 308
312 312 311 311 311 310 311 311 310 311 311 312 313 314 315 316 315 315 315 316 317 318 321 322 321 320 317 316 313 308 306 306
312 313 313 311 311 311 311 311 310 311 312 312 313 314 316 317 318 317 316 317 318 318 321 321 317 316 314 312 310 308 306 306
312 312 314 313 312 312 312 312 311 311 312 313 314 317 320 320 320 317 315 318 319 317 315 314 313 313 311 310 308 306 305 304
312 312 313 314 314 311 312 312 312 312 313 315 316 317 320 321 321 318 316 318 318 317 316 313 313 311 309 308 306 304 303 301
312 313 314 313 313 313 311 312 313 314 317 317 317 319 320 320 320 316 318 318 317 318 316 314 311 309 307 305 303 302 301 300
310 311 312 314 314 314 314 314 314 315 317 317 319 319 320 318 319 318 318 318 318 318 316 312 308 306 304 303 303 302 301 300
306 309 311 313 315 316 315 315 316 317 317 317 318 318 318 319 318 318 318 318 318 315 313 310 307 304 304 302 301 300 300 299
303 305 306 308 310 312 315 316 317 317 317 314 314 311 311 311 311 310 309 310 309 310 306 303 302 302 301 301 300 299 298 298
304 305 306 311 311 310 309 308 309 309 311 307 306 306 307 306 306 305 305 304 304 303 301 300 299 300 296 295 297 298 297 295
302 305 308 311 308 309 310 308 309 307 306 305 305 305 304 303 303 302 300 299 300 298 298 298 298 298 293 293 292 291 289 288
304 308 307 307 308 307 307 307 306 306 305 305 305 304 302 302 300 299 298 299 298 298 298 299 298 296 292 290 288 287 285 284

GFSFLT1_sfc_thetae_084.txt.gz
Theta_e
315 316 316 316 317 318 316 316 316 316 315 316 318 318 318 322 320 319 319 318 317 315 314 314 313 312 310 308 307 306 303 302
316 315 316 315 316 316 315 314 315 315 315 315 316 316 316 318 319 319 319 319 318 316 315 315 314 311 311 309 307 306 304 301
312 313 313 314 314 315 315 314 314 316 316 316 317 316 314 315 316 319 320 319 319 318 317 314 313 312 310 309 308 306 305 302
309 310 312 313 312 313 314 313 314 315 316 313 312 313 314 313 313 314 317 319 320 320 318 316 314 313 311 310 307 306 304 302
308 310 310 311 312 313 313 314 313 314 315 313 310 313 312 314 311 313 315 318 318 319 318 316 314 314 311 311 310 307 306 303
307 309 309 312 312 312 311 312 312 312 313 313 309 312 313 306 308 309 310 313 316 318 318 316 314 314 313 311 309 306 306 305
308 309 311 311 312 312 312 309 310 312 312 310 308 307 307 307 307 308 309 311 313 315 318 318 317 316 314 312 311 309 310 309
308 308 309 310 309 310 311 310 309 310 310 310 310 309 308 309 310 309 309 309 310 314 316 317 317 318 318 316 313 312 309 308
309 309 309 309 309 309 309 310 310 310 310 310 311 310 311 311 311 312 311 311 312 314 317 320 320 320 319 316 315 314 313 311
310 311 310 310 310 309 310 310 310 310 310 310 310 310 310 311 312 311 312 312 313 313 315 317 317 316 315 316 315 312 311 311
310 311 311 311 311 311 311 311 310 310 310 310 310 311 311 312 313 314 315 313 313 315 316 317 316 315 315 314 312 311 309 308
309 312 313 313 312 311 311 310 310 309 310 310 310 311 312 313 313 315 316 315 315 317 317 317 315 315 313 312 311 309 308 307
309 310 310 312 312 311 311 311 311 311 311 311 311 312 312 314 316 318 318 316 316 318 318 317 316 315 312 310 308 307 306 303
307 308 309 310 312 312 311 311 311 312 313 312 312 313 314 314 316 318 319 316 317 317 318 317 317 313 308 308 307 304 304 305
306 306 309 311 311 312 312 311 311 311 312 312 312 313 314 315 317 316 315 316 316 316 318 318 315 310 308 305 304 303 302 302
304 307 307 309 309 311 312 312 312 311 311 311 311 312 312 313 311 311 313 316 316 317 313 309 308 306 305 304 303 301 301 299
302 304 306 306 308 309 309 309 309 311 311 311 309 309 310 309 308 308 307 307 306 305 304 302 301 302 297 296 299 300 299 296
300 304 305 305 307 307 306 308 309 309 307 307 307 307 305 305 305 304 303 302 301 300 299 300 299 298 294 294 294 296 292 289
300 302 305 306 305 306 308 309 307 306 305 305 305 305 303 302 302 301 299 299 299 298 298 298 298 294 291 290 288 287 285 285

GFSFLT1_sfc_thetae_087.txt.gz
Theta_e
317 318 318 318 319 318 318 319 318 318 319 320 321 322 323 322 321 322 322 321 321 321 320 318 318 317 316 314 313 312 310 309
317 317 317 318 319 317 316 316 317 317 319 318 318 317 320 320 321 321 322 322 321 322 319 318 319 318 317 317 314 313 311 310
314 315 316 316 316 316 316 315 316 317 319 319 318 317 319 319 320 320 320 320 320 321 321 319 318 318 319 317 317 314 315 311
312 312 315 315 315 315 316 315 316 317 318 317 315 316 316 316 318 318 320 321 322 321 321 321 321 320 318 319 319 317 315 312
312 311 312 314 315 316 316 316 316 317 318 317 315 314 315 317 317 318 319 321 323 322 322 322 322 321 321 321 320 319 318 314
311 313 313 313 315 315 317 315 315 317 318 318 317 316 318 317 317 318 319 323 324 324 324 325 324 324 323 322 320 319 318 319
313 315 315 314 314 315 314 315 315 316 317 318 316 319 318 314 317 316 317 319 321 323 325 325 325 324 323 323 322 321 320 319
313 312 313 314 313 313 313 313 315 316 315 318 317 317 317 316 315 316 315 316 317 319 322 323 323 324 324 324 323 322 321 320
314 313 314 314 313 312 312 312 313 316 316 316 317 317 316 316 317 317 316 316 317 319 320 322 323 324 324 324 325 324 323 321
313 315 315 315 314 313 312 311 312 315 316 316 316 317 316 316 317 318 318 319 319 320 321 322 323 324 324 325 325 323 322 321
314 315 315 316 315 315 313 312 313 316 316 317 316 316 317 318 319 318 319 320 320 321 321 322 322 324 325 324 322 322 319 317
314 316 317 317 317 316 315 315 315 315 316 316 317 317 317 318 318 319 320 321 321 320 321 321 321 320 317 315 317 318 314 313
314 316 317 316 316 316 315 315 315 316 316 316 316 317 317 317 317 318 320 320 322 321 321 320 319 318 318 316 316 314 313 312
313 314 315 316 316 316 315 315 316 316 316 315 316 316 315 316 315 316 318 318 320 320 320 320 318 318 317 317 316 314 312 311
312 313 314 316 317 317 316 316 317 316 316 315 315 316 316 316 315 317 319 321 321 322 322 322 320 319 318 316 312 311 309 308
307 312 314 315 315 316 317 317 316 316 315 315 315 317 317 317 319 320 321 321 322 323 322 321 318 316 312 310 308 306 306 303
305 308 312 313 314 315 315 316 315 315 315 315 316 316 316 318 319 319 320 320 319 318 317 315 310 308 298 297 302 303 302 296
306 305 308 312 314 314 314 314 315 314 314 314 313 313 313 313 312 312 312 311 307 305 304 303 301 300 294 294 294 297 293 290
306 306 307 310 311 312 312 312 312 311 311 310 310 309 308 307 307 305 302 301 301 300 299 299 295 292 290 290 289 289 287 286

GFSFLT1_sfc_thetae_090.txt.gz
Theta_e
321 320 322 322 321 322 320 321 320 321 323 322 323 322 323 324 324 323 325 324 324 322 321 322 320 318 319 319 317 318 317 315
321 321 320 321 319 320 321 321 320 320 320 318 319 319 321 321 322 324 324 323 323 324 321 322 321 320 321 321 319 317 314 315
319 320 320 319 318 318 319 322 321 322 321 320 320 320 320 320 321 323 325 324 324 325 324 322 323 321 322 320 318 317 318 316
318 318 319 318 318 319 318 319 320 322 323 320 318 318 318 318 319 320 323 325 325 325 325 324 324 324 322 322 322 322 319 320
318 318 318 320 320 321 322 319 319 321 321 320 318 317 317 318 318 320 322 325 326 324 325 325 325 324 323 324 324 324 323 321
318 319 319 319 319 321 322 320 319 319 321 320 317 316 321 320 319 318 319 322 322 323 325 325 325 325 325 326 325 325 324 323
320 320 320 320 319 320 322 321 319 319 320 319 317 315 317 317 317 317 318 318 320 322 324 326 326 325 325 326 327 327 325 325
320 319 319 319 318 318 320 320 319 319 319 320 320 321 320 321 319 318 319 320 320 321 325 325 326 327 329 330 329 328 328 326
320 320 321 320 319 318 317 317 317 320 321 320 323 324 322 322 323 323 322 322 324 325 326 326 327 328 329 329 328 327 327 327
321 321 322 321 320 320 319 319 320 320 320 322 322 323 323 322 322 324 325 324 324 327 325 325 325 325 325 325 325 325 327 328
320 322 322 322 322 321 321 320 319 322 323 322 322 323 323 323 323 322 323 324 323 322 324 324 324 324 324 325 326 326 326 327
320 321 323 323 323 322 321 320 319 320 322 323 323 323 323 323 323 323 323 323 323 323 323 324 324 323 325 325 326 326 322 319
320 321 322 323 323 322 320 320 320 321 322 323 323 324 324 323 322 324 325 324 325 324 323 322 323 324 325 324 321 317 316 316
319 320 321 322 323 323 322 321 321 322 322 322 322 323 323 323 324 324 324 323 324 324 323 323 323 324 323 323 319 316 316 319
318 319 321 322 323 323 323 323 323 322 321 321 321 321 322 323 323 324 324 323 322 322 322 322 323 322 323 323 322 318 317 318
315 318 320 322 322 323 324 324 323 323 321 320 320 322 322 321 321 322 321 321 320 321 322 323 325 324 324 324 319 317 314 312
312 314 318 320 321 323 323 323 323 323 322 321 321 321 321 321 321 321 322 322 322 323 323 323 323 317 297 298 303 311 305 298
312 313 313 318 321 322 323 323 323 322 321 321 321 321 320 321 321 321 321 322 322 316 307 304 301 298 293 294 294 296 292 290
312 313 314 315 319 322 322 323 321 320 320 319 320 319 319 318 318 315 308 305 303 301 298 295 292 290 289 289 289 288 286 286

GFSFLT1_sfc_thetae_093.txt.gz
Theta_e
326 325 325 324 324 323 322 323 324 324 323 323 323 326 326 325 324 323 322 323 325 328 324 323 323 320 321 322 322 324 320 319
325 325 324 323 323 323 323 320 322 322 322 320 319 319 321 321 321 322 321 321 322 325 323 321 321 321 320 321 322 321 320 319
322 324 323 321 321 321 322 323 322 323 323 323 320 319 320 320 321 321 321 321 322 322 321 321 322 322 321 322 322 319 319 318
321 322 322 320 320 321 322 322 323 323 322 323 323 321 320 318 319 319 320 322 322 323 323 323 323 322 323 325 324 322 318 318
322 322 322 321 322 323 322 322 321 323 326 323 319 318 316 319 319 320 321 323 322 322 324 324 324 326 326 322 324 323 325 320
321 322 322 323 322 323 324 321 320 323 323 323 321 319 317 319 319 319 321 318 320 320 324 327 325 326 327 326 326 327 326 324
322 323 322 323 323 322 324 321 320 321 323 323 322 318 317 317 317 316 318 319 317 320 325 326 328 327 326 328 328 328 326 326
321 321 320 321 322 320 321 321 319 320 322 322 322 321 321 318 317 316 316 317 318 320 322 324 326 328 327 328 328 328 328 327
322 322 322 321 322 322 322 320 319 321 320 321 322 321 318 318 321 320 317 317 317 319 320 320 326 328 328 329 329 330 330 328
321 323 324 322 322 322 323 322 322 321 322 322 321 321 320 319 322 325 323 321 320 321 322 324 325 328 328 329 329 328 328 328
321 323 324 324 323 323 324 323 322 322 323 324 323 322 324 324 323 323 325 324 325 325 326 327 328 328 328 329 327 328 327 327
321 323 325 326 325 323 323 323 322 323 323 324 324 323 324 324 324 326 325 326 325 324 326 326 326 326 328 327 327 327 326 326
321 322 324 325 325 323 322 323 322 323 324 324 324 325 326 325 326 325 328 327 328 327 326 325 325 326 327 326 325 325 325 324
321 322 322 324 325 325 323 323 322 323 323 324 326 327 326 326 326 327 327 325 324 325 325 325 325 326 325 326 326 326 325 324
318 320 322 323 324 325 324 324 323 323 322 323 324 325 325 326 327 328 328 328 326 325 327 326 326 325 325 325 324 325 324 322
314 318 321 323 324 325 326 326 325 324 322 322 324 325 326 325 326 327 326 326 325 325 325 325 324 324 322 324 324 321 322 319
314 315 319 321 323 325 325 326 327 327 324 323 323 324 323 324 325 325 325 324 323 323 322 322 321 307 294 296 303 309 301 297
313 314 316 318 322 324 325 326 327 326 325 324 323 323 322 324 322 322 322 322 321 311 305 301 296 295 292 292 292 293 290 289
314 315 316 317 319 324 326 326 326 325 324 324 323 323 322 322 322 321 313 309 303 297 294 292 290 289 289 289 288 287 286 285

GFSFLT1_sfc_thetae_096.txt.gz
Theta_e
325 325 325 325 324 323 323 322 324 324 324 324 327 327 328 328 326 327 326 325 326 326 324 325 325 324 321 320 318 318 316 315
325 325 324 323 322 322 322 322 322 322 320 319 322 322 325 324 326 326 325 323 322 321 320 321 319 318 318 320 317 314 314 314
322 323 322 322 321 321 322 321 322 322 321 320 320 321 321 321 321 321 322 320 321 319 318 318 319 318 317 317 316 315 314 314
321 321 321 321 319 320 321 322 322 322 322 320 319 320 319 318 318 318 319 320 320 320 319 318 319 319 318 318 318 316 313 314
321 321 320 320 319 321 321 323 323 321 322 320 318 316 314 316 317 317 318 319 320 320 322 321 320 321 319 319 320 318 318 312
320 321 321 321 321 322 321 322 322 322 322 321 319 317 317 316 315 314 317 318 319 320 321 321 321 321 321 321 320 319 319 319
321 322 322 321 322 321 322 321 321 322 323 321 319 318 316 314 314 313 315 317 318 319 320 321 321 321 321 321 321 321 321 320
320 319 319 321 320 320 320 320 318 321 322 322 321 319 318 316 315 315 315 315 316 316 316 316 319 321 321 321 321 321 321 320
320 320 319 321 320 319 319 320 319 320 321 321 321 319 318 318 317 317 317 315 315 316 317 317 320 321 322 323 322 322 322 322
319 321 320 320 321 320 320 320 320 319 321 322 321 320 320 318 318 318 318 317 317 317 317 317 319 320 322 322 322 321 322 321
319 321 321 321 321 321 322 321 320 320 319 321 321 320 319 319 318 317 318 317 318 317 318 317 318 318 322 322 321 321 320 320
319 321 323 322 322 322 322 321 320 320 321 321 321 320 319 319 319 319 320 318 318 317 317 317 318 319 319 320 320 321 320 320
319 320 323 322 321 321 321 321 320 321 322 322 321 321 321 320 320 321 321 321 320 318 318 320 319 319 321 320 320 320 319 318
319 320 321 323 322 321 321 321 321 322 322 322 321 321 321 321 322 321 322 321 321 321 320 320 321 321 321 320 320 320 319 320
317 319 320 323 324 323 322 321 322 321 322 321 321 322 322 321 322 322 322 323 322 322 322 322 321 321 321 320 320 319 319 320
312 315 318 321 323 324 323 322 322 322 320 321 322 322 323 323 322 322 323 323 322 322 321 321 321 321 318 314 318 318 314 299
309 312 317 320 321 323 324 323 322 321 320 319 322 323 323 323 323 323 322 322 322 322 322 319 312 301 292 295 303 299 295 292
309 312 315 319 322 324 324 324 324 322 320 321 321 322 322 322 322 322 321 321 319 312 301 297 293 292 291 291 290 290 289 288
313 314 314 315 317 323 325 326 325 324 322 321 321 321 321 321 321 319 309 303 298 293 291 290 289 288 289 288 287 286 285 284

GFSFLT1_sfc_thetae_099.txt.gz
Theta_e
320 319 320 319 318 320 322 320 320 323 322 322 321 323 325 324 327 327 326 325 327 325 323 323 322 320 320 318 314 313 312 312
319 319 319 317 318 321 319 320 321 320 320 320 320 322 324 324 325 326 325 324 322 323 323 322 320 321 320 318 313 313 311 311
317 317 317 315 318 320 320 321 320 321 320 320 321 323 325 324 325 325 324 322 319 320 320 318 319 317 317 314 313 311 310 309
316 316 315 315 318 319 320 320 319 321 320 320 320 321 321 321 323 322 321 321 319 318 319 319 318 317 315 314 314 312 310 310
316 315 314 314 318 320 321 321 320 321 318 319 318 317 316 318 320 322 319 320 319 318 319 319 318 317 317 315 315 313 312 309
315 315 315 315 317 318 320 321 320 321 320 318 318 317 317 318 317 317 318 318 320 320 320 319 318 318 318 318 317 317 316 312
317 316 316 315 317 318 320 320 319 320 320 319 318 315 315 313 315 315 315 317 318 318 319 319 319 319 319 320 319 318 317 317
315 315 315 315 316 318 319 319 319 320 320 318 317 315 314 313 314 314 314 314 316 316 317 317 318 319 320 320 319 319 318 315
315 315 315 316 316 316 318 318 319 320 320 319 318 316 314 314 314 314 314 314 315 317 316 317 319 320 320 320 319 319 319 318
314 315 316 316 316 316 316 316 318 320 320 320 318 317 315 314 314 313 314 315 316 317 316 316 316 319 320 320 319 319 318 317
315 314 316 317 317 316 316 317 317 318 320 320 319 318 317 316 315 314 315 314 315 315 315 315 316 318 319 319 319 319 318 317
315 315 316 318 317 317 316 316 316 316 318 320 320 318 317 317 315 315 317 316 316 315 316 315 315 315 315 317 317 318 316 316
315 316 316 317 317 317 317 317 317 317 317 319 319 318 317 316 316 316 317 316 316 316 315 315 315 314 314 314 314 317 316 315
314 317 316 317 316 317 317 318 317 318 318 317 318 318 316 315 316 317 317 317 315 316 316 314 314 315 315 315 317 317 316 317
309 316 317 316 317 318 318 318 318 318 318 318 317 318 318 316 317 317 318 318 317 315 315 315 316 316 316 316 317 317 316 312
307 306 316 318 317 317 318 318 318 318 318 318 317 317 319 318 318 318 318 319 320 319 318 318 317 318 317 317 316 312 302 293
311 311 311 313 319 318 318 318 318 319 318 318 319 319 319 318 318 318 317 318 319 318 318 318 312 300 293 297 302 297 294 290
309 309 310 311 313 320 318 318 319 318 317 318 319 319 319 319 319 318 317 315 316 302 298 296 292 291 291 292 291 291 289 287
308 308 309 310 312 312 320 320 319 318 317 317 318 320 319 319 319 318 313 302 297 293 291 290 288 288 289 288 287 286 285 285

GFSFLT1_sfc_thetae_105.txt.gz
Theta_e
318 317 320 321 321 320 318 316 317 319 321 321 324 324 325 327 326 326 324 327 324 323 318 314 312 312 312 310 310 309 310 312
316 317 317 316 316 316 316 315 316 318 320 319 319 321 322 324 327 325 326 323 322 319 314 312 310 311 313 311 310 309 308 310
315 315 315 315 315 315 315 315 317 318 319 317 319 321 323 322 325 326 324 322 318 317 313 311 310 313 313 312 310 307 307 310
314 315 314 314 314 314 315 317 317 318 320 319 319 319 322 321 322 325 322 320 318 317 314 313 312 316 314 312 312 308 309 306
315 315 313 314 314 314 315 318 315 316 318 318 318 317 318 321 321 323 324 321 320 320 316 316 315 318 316 314 314 311 310 308
314 315 314 314 313 315 316 316 314 315 318 318 317 319 321 321 319 318 321 322 321 321 320 319 318 318 317 315 313 311 312 310
314 315 313 313 314 313 315 316 316 315 316 319 319 318 319 320 318 316 318 320 319 320 320 319 317 317 315 315 313 312 312 311
313 311 311 313 313 313 314 315 314 316 317 318 318 318 319 319 319 317 315 317 319 319 320 318 317 317 318 317 316 316 313 312
313 312 312 312 313 314 315 314 314 316 315 317 317 317 318 319 319 318 317 317 319 320 320 319 319 318 318 318 317 317 316 315
312 312 312 312 313 313 316 315 315 316 315 316 316 317 317 317 318 318 318 318 318 319 320 319 318 319 319 318 317 317 316 316
312 311 312 313 313 314 315 316 315 316 316 315 315 315 316 317 317 317 317 317 317 316 316 317 317 318 318 318 317 317 316 316
310 313 313 313 313 313 314 315 315 316 317 316 315 315 315 314 316 316 316 316 316 316 315 315 315 316 317 316 316 316 315 316
311 313 313 314 315 314 312 313 316 316 318 317 315 316 315 313 314 315 315 315 316 315 315 315 314 314 314 314 313 314 315 315
310 313 313 314 315 315 315 312 313 315 317 317 316 314 314 313 312 311 313 315 315 316 315 314 314 314 314 314 314 314 314 314
306 310 311 315 316 315 315 315 314 313 314 315 315 315 314 314 313 311 312 312 312 312 314 314 313 313 313 313 313 311 311 313
305 305 310 311 312 316 316 316 315 314 313 313 314 315 315 316 313 312 312 313 312 311 311 311 311 311 311 310 310 308 307 298
305 305 307 308 308 309 311 316 316 316 314 313 314 316 315 314 314 313 312 312 312 312 311 311 310 310 301 299 305 306 301 295
304 304 305 305 304 306 306 309 316 317 316 316 315 315 315 315 315 315 313 311 312 310 309 309 306 301 294 296 295 297 294 291
302 303 304 303 302 302 304 306 310 317 316 316 316 315 315 316 314 314 314 313 310 307 300 296 293 292 292 293 291 290 288 287

GFSFLT1_sfc_thetae_108.txt.gz
Theta_e
302 311 317 320 321 321 321 320 318 317 319 323 326 325 325 325 325 325 326 324 327 327 326 321 320 317 314 314 310 310 312 312
312 313 316 318 318 319 319 318 316 320 321 320 322 322 323 324 325 326 324 324 325 326 322 317 317 316 313 312 310 310 308 312
313 312 314 318 319 318 317 318 317 320 321 320 321 320 323 323 325 325 324 325 324 322 317 316 315 314 311 311 311 307 307 312
310 312 313 315 317 316 317 316 318 318 316 319 318 320 322 321 322 323 324 323 321 318 317 314 312 313 310 311 311 310 309 307
308 312 312 315 317 316 314 317 317 316 316 316 315 317 318 320 321 324 323 321 318 315 314 311 312 313 311 311 312 309 312 307
306 312 314 316 315 314 316 318 316 314 314 317 316 316 319 321 318 321 318 318 318 315 313 312 313 314 313 312 311 310 312 309
307 312 313 314 314 315 316 315 315 313 314 318 316 315 319 319 317 317 317 317 318 315 316 315 317 316 314 313 313 312 312 312
307 310 311 313 313 314 314 316 315 315 314 318 317 317 320 318 317 317 318 317 317 316 317 317 316 316 315 314 313 312 311 311
308 310 310 313 313 313 315 315 315 316 317 317 318 319 320 320 318 317 318 319 318 318 316 316 317 317 317 316 315 315 314 312
308 310 311 313 313 313 314 314 315 315 315 317 317 317 318 319 319 318 318 320 320 319 317 316 316 317 317 316 316 316 315 315
309 311 310 313 313 315 315 314 314 315 315 315 316 317 317 318 318 318 317 318 319 319 319 318 317 317 317 317 316 316 316 315
311 312 312 313 314 314 315 314 314 315 315 313 311 312 317 317 317 317 317 317 318 319 319 318 318 318 317 317 316 316 315 315
309 313 313 312 312 314 315 315 316 316 316 315 312 312 313 312 316 316 317 316 317 317 317 318 317 318 318 317 316 316 315 315
306 310 313 314 313 313 314 315 315 317 318 315 312 311 312 312 314 315 316 316 316 315 315 315 316 317 317 317 317 316 315 315
304 306 309 311 315 315 314 312 313 314 316 316 315 311 312 313 312 312 314 315 315 314 315 314 314 314 314 315 315 314 314 314
304 305 304 306 308 312 315 314 313 313 313 314 315 315 315 314 313 311 312 313 314 315 314 314 314 313 313 313 313 312 310 303
304 305 303 303 303 305 307 309 314 314 312 312 314 315 314 314 313 312 311 311 311 311 312 313 311 310 300 300 307 310 307 299
302 303 303 301 301 301 302 305 308 314 313 313 313 314 314 313 313 312 311 311 312 310 309 307 305 304 296 298 297 304 301 296
299 299 300 298 298 298 300 303 304 306 314 315 314 314 314 314 313 313 312 311 310 310 307 305 301 297 293 294 292 293 291 290

GFSFLT1_sfc_thetae_111.txt.gz
Theta_e
311 315 317 318 327 329 330 331 331 328 328 329 329 330 328 330 328 327 326 326 327 327 328 328 326 323 322 322 321 323 322 322
312 321 322 323 326 327 328 329 328 326 325 324 324 322 325 326 327 327 327 326 326 326 326 323 323 321 321 323 320 320 319 322
309 318 319 321 323 326 325 327 325 326 325 325 328 327 326 327 328 328 328 326 326 326 325 322 320 318 318 320 321 319 318 321
309 312 319 319 322 321 322 324 324 326 327 325 323 325 325 324 326 327 326 325 325 325 324 322 320 317 315 316 321 320 316 319
309 309 317 319 321 320 322 323 323 323 323 322 320 321 320 323 324 326 324 324 324 322 320 321 320 318 315 316 321 322 320 316
308 309 315 320 322 318 321 324 323 320 321 321 320 322 323 324 324 323 324 323 321 319 318 318 318 317 317 315 318 321 321 319
316 314 317 319 322 317 322 323 319 319 323 322 322 320 321 321 321 321 320 319 317 317 315 314 316 316 316 317 318 321 321 320
314 315 316 318 316 316 318 319 316 319 322 323 322 320 320 322 321 319 316 316 314 313 313 314 316 317 316 316 318 319 320 320
314 315 316 316 314 315 317 316 316 318 321 322 322 322 321 323 321 321 317 317 314 315 314 317 318 318 316 316 316 317 320 318
314 315 316 316 315 314 316 316 317 316 319 320 320 321 322 321 320 321 320 320 317 316 317 318 318 317 317 317 316 316 316 316
315 315 316 316 315 315 316 317 316 317 317 318 319 319 321 321 320 319 320 320 317 316 316 317 317 317 318 318 318 318 317 318
312 314 314 314 315 315 315 315 316 316 316 317 317 318 319 319 319 319 319 320 319 316 315 314 314 314 316 317 316 317 317 318
310 310 314 313 314 314 314 315 316 317 316 317 317 317 318 319 318 318 319 318 320 319 318 316 314 313 314 315 316 316 315 315
307 307 308 309 314 314 315 316 316 317 318 318 316 316 316 317 318 317 318 317 317 317 319 317 316 315 315 315 316 316 315 315
307 307 305 305 307 314 315 316 318 319 319 319 316 316 318 316 317 316 317 318 317 317 317 317 318 317 316 316 316 316 316 316
306 305 304 303 303 304 307 312 316 319 319 318 317 318 318 317 315 316 316 316 316 316 316 315 316 316 317 317 317 316 315 312
304 305 302 300 300 300 303 305 307 313 317 318 318 317 317 317 316 315 315 316 316 315 315 314 313 312 300 300 309 313 310 302
300 300 299 298 297 298 299 303 306 308 315 316 317 317 317 317 317 315 314 314 315 314 314 314 312 312 298 299 299 310 306 298
297 298 295 295 296 297 299 302 302 304 303 309 315 317 317 317 317 315 316 315 313 312 311 311 311 309 296 296 295 303 299 295

GFSFLT1_sfc_thetae_114.txt.gz
Theta_e
317 318 320 324 326 329 334 337 339 338 336 334 335 335 334 333 333 332 333 332 332 331 329 330 331 329 330 328 328 329 328 327
317 318 321 328 329 329 332 335 338 332 331 329 331 331 330 332 334 330 329 330 329 329 328 328 329 327 330 329 330 328 326 328
313 315 321 328 329 330 332 334 336 330 331 333 332 328 329 329 331 331 331 328 327 327 327 327 326 327 326 325 328 327 326 328
312 315 318 325 328 330 331 333 336 334 336 332 333 332 330 330 330 330 329 328 327 327 326 325 324 324 322 322 327 327 323 326
316 317 317 322 327 331 331 333 333 333 336 332 331 328 325 328 330 331 329 332 331 327 326 324 323 323 322 321 323 324 326 322
319 319 319 320 327 329 327 329 330 332 335 333 330 327 328 328 330 330 331 330 328 328 325 324 322 321 320 319 321 322 324 326
319 321 319 321 329 324 324 327 326 327 329 331 329 327 325 326 327 328 328 327 326 324 322 323 322 320 318 320 320 322 327 327
319 320 321 322 325 321 322 325 323 323 325 327 328 327 324 323 323 326 324 322 318 319 319 319 320 319 318 319 320 321 325 326
320 321 323 321 320 320 321 323 321 322 326 326 327 325 325 325 327 326 323 320 318 317 316 317 318 318 318 317 318 320 322 325
320 321 322 321 319 318 319 320 321 322 327 327 326 325 325 324 328 326 321 321 316 314 315 315 316 316 317 317 317 318 321 324
318 319 319 319 318 319 319 319 320 321 325 324 324 324 326 326 328 323 320 320 317 314 316 316 316 315 316 317 318 321 323 324
316 315 317 318 317 317 318 317 319 320 321 322 322 322 324 326 325 324 321 320 317 315 316 316 315 316 317 316 319 318 319 320
314 315 310 309 314 315 316 316 318 319 320 320 319 322 324 324 322 321 321 318 317 316 316 316 316 317 318 318 319 319 319 318
311 311 310 305 306 313 314 315 317 319 318 317 319 320 321 322 323 323 321 320 318 316 315 314 314 316 316 317 317 316 316 317
310 310 307 305 303 304 306 314 318 318 317 318 318 320 323 324 325 323 321 320 318 318 316 314 314 313 313 315 316 316 316 316
309 307 305 302 301 302 302 305 308 317 318 319 319 321 322 322 322 323 323 322 320 319 318 317 315 314 314 313 313 314 316 315
307 306 305 301 298 300 301 303 305 309 312 319 320 319 319 320 321 321 321 322 322 322 320 316 315 314 302 301 309 313 314 313
303 302 301 302 299 298 300 300 302 305 305 315 318 317 317 317 320 319 319 319 320 319 318 318 317 315 298 299 300 314 313 305
302 301 300 300 301 299 300 298 299 299 300 301 303 310 317 318 317 317 319 319 318 318 318 318 317 315 297 298 297 306 301 297

GFSFLT1_sfc_thetae_117.txt.gz
Theta_e
318 320 321 322 325 326 328 336 342 348 345 344 342 340 337 339 338 338 340 340 339 338 339 338 338 335 332 327 326 326 325 325
319 320 321 322 326 328 329 332 340 343 340 338 335 333 333 334 336 336 338 338 336 337 336 335 331 329 328 328 327 325 323 329
316 318 320 323 323 329 330 333 337 340 337 335 337 337 336 337 335 335 335 334 335 334 334 331 329 328 327 325 326 322 322 328
313 315 317 320 324 329 330 333 335 339 333 335 337 336 334 331 330 332 334 333 331 330 330 330 328 327 325 324 325 322 319 324
312 313 316 319 324 330 332 333 334 337 335 335 336 331 328 331 331 332 332 334 331 329 328 327 327 327 326 324 326 326 323 321
316 317 319 320 324 330 333 333 334 336 336 336 335 334 332 332 331 332 331 332 333 330 327 326 325 325 325 323 324 325 324 325
318 321 324 322 330 332 333 332 333 335 335 336 335 334 332 329 329 329 330 331 333 330 329 326 324 324 323 323 323 324 324 325
319 320 322 322 326 330 326 328 330 331 333 335 335 334 332 330 329 328 329 329 329 329 328 325 323 323 322 322 322 322 322 322
320 322 324 324 326 327 322 325 326 326 330 333 333 333 330 329 328 328 327 328 328 327 326 323 323 322 322 321 321 322 322 322
321 323 324 324 323 321 321 323 324 323 327 330 329 330 329 327 328 329 329 329 326 326 321 320 321 320 320 320 320 320 321 322
319 320 321 320 319 320 320 322 322 323 327 328 328 328 329 328 328 328 328 326 324 318 316 316 317 318 318 318 319 320 320 321
317 316 316 316 319 319 319 319 320 321 325 326 327 326 327 326 327 328 327 324 321 318 316 316 315 315 316 316 317 319 319 320
315 315 314 312 311 316 317 318 319 321 322 323 325 324 325 326 326 326 326 322 320 316 316 316 315 315 316 315 316 318 318 319
313 313 311 309 306 306 307 316 318 319 321 321 322 322 324 325 324 325 322 319 317 316 317 315 315 314 315 316 316 317 318 319
311 310 309 307 304 304 304 306 308 318 320 320 320 320 321 323 325 325 323 320 317 316 316 316 316 315 315 315 316 316 319 320
308 308 308 306 304 302 303 304 305 308 312 318 319 322 323 324 324 324 324 321 319 317 315 314 314 315 315 315 316 316 317 314
306 306 306 306 304 300 301 302 302 304 304 309 321 321 322 322 323 324 323 322 321 319 316 315 313 312 302 300 309 314 314 312
305 304 304 304 305 302 299 299 301 300 300 301 303 317 318 320 322 322 321 322 322 321 320 317 314 314 299 300 299 312 311 312
303 303 303 303 304 305 303 298 297 297 296 296 297 300 304 314 318 320 321 321 321 320 321 320 317 315 297 298 297 313 311 305

GFSFLT1_sfc_thetae_123.txt.gz
Theta_e
311 311 311 310 310 317 337 338 339 342 340 337 336 334 333 336 335 334 334 336 334 332 330 329 331 330 325 325 323 322 324 325
312 312 312 308 308 314 333 336 338 340 337 335 334 333 333 331 335 336 333 336 334 332 331 329 330 329 327 324 323 322 322 324
309 309 309 310 312 317 325 333 337 339 340 338 336 335 333 332 336 336 336 335 334 331 330 328 329 329 325 324 323 322 319 324
305 309 310 311 312 316 323 330 336 338 338 336 331 329 328 327 331 331 332 333 333 330 329 328 328 329 326 324 323 322 319 321
303 307 307 309 312 318 320 324 333 336 337 335 332 330 326 327 329 331 331 332 332 331 329 328 327 328 328 326 325 323 322 318
301 305 307 308 311 319 321 321 328 333 335 334 330 329 329 329 330 329 330 329 329 329 329 329 328 328 328 326 325 323 323 320
302 306 309 317 315 318 319 320 324 332 332 331 331 329 326 327 327 326 326 327 327 327 327 328 328 327 326 326 326 324 322 321
310 314 316 321 321 319 321 321 325 326 328 328 329 327 327 326 326 325 323 324 326 326 326 326 326 327 326 326 325 324 322 320
316 316 317 318 320 318 318 319 319 325 326 328 328 328 329 328 328 326 325 325 326 327 326 324 324 325 325 325 324 324 323 322
314 315 315 314 315 315 316 316 318 322 327 328 330 328 328 328 327 327 327 326 326 327 326 325 323 323 324 324 324 323 324 322
311 312 312 313 313 315 316 317 318 320 324 326 327 327 327 326 325 323 324 325 324 322 324 324 324 324 323 323 322 323 323 323
310 310 310 310 311 311 312 315 318 319 319 323 325 325 325 325 323 323 324 323 322 320 320 319 320 320 321 322 321 321 321 321
308 307 306 306 306 307 307 309 310 315 321 321 323 325 324 322 322 324 323 322 321 318 317 316 316 317 318 319 319 320 319 320
305 304 304 303 304 304 304 305 307 310 315 319 320 320 321 321 321 323 322 320 317 317 316 315 315 315 315 316 317 318 319 320
304 302 302 301 301 300 302 302 304 306 309 313 315 317 319 320 322 322 320 319 317 315 315 315 315 314 315 315 316 317 318 319
303 302 301 300 299 298 299 299 300 303 303 303 304 308 312 320 320 321 319 318 315 316 315 314 314 314 314 314 315 316 316 315
301 302 302 301 299 297 298 296 296 299 299 300 301 303 306 309 318 320 319 317 314 314 314 314 313 312 303 301 308 313 313 312
298 297 298 300 299 298 295 295 294 294 295 296 297 299 300 301 305 317 319 317 316 314 314 313 312 311 298 299 300 310 310 308
296 295 295 295 297 297 295 294 293 293 292 293 294 295 296 298 299 302 307 317 316 314 313 313 312 311 296 297 296 309 306 304

GFSFLT1_sfc_thetae_126.txt.gz
Theta_e
310 310 307 308 306 328 335 337 339 340 340 337 336 336 335 336 336 337 335 334 333 331 329 329 330 328 327 325 323 320 322 324
309 311 311 308 307 316 332 334 337 339 337 334 333 332 333 334 334 335 335 335 333 330 328 327 329 327 325 324 321 321 318 323
302 307 309 309 308 306 327 334 336 339 338 337 336 335 332 334 334 333 334 334 334 333 331 329 328 327 324 324 322 318 319 324
301 303 305 307 309 306 319 332 336 339 338 336 330 328 327 329 332 333 334 335 335 334 332 329 329 329 326 324 322 321 318 321
301 303 304 307 308 311 317 331 335 339 338 335 332 331 329 331 332 333 332 334 333 333 331 330 330 329 327 325 324 323 322 319
300 301 304 308 309 315 324 331 335 337 337 335 333 331 331 329 330 328 331 331 332 331 330 329 327 329 328 326 324 323 323 320
301 301 303 308 310 314 318 329 333 335 336 335 333 330 327 326 327 327 328 329 329 330 329 329 328 328 328 327 325 324 323 322
304 307 315 315 316 318 321 324 325 330 333 333 332 330 328 327 327 326 326 326 326 327 328 327 327 328 327 327 325 325 323 322
311 313 314 315 316 315 317 320 323 325 325 328 329 328 328 327 327 326 325 326 326 327 326 327 326 326 326 326 325 325 324 323
310 311 311 312 313 314 315 317 319 322 324 324 324 325 326 326 325 325 325 326 326 326 326 325 324 325 325 325 325 324 323 323
309 308 309 309 310 312 313 315 317 319 323 326 327 325 325 327 325 325 326 326 326 326 324 323 322 323 323 324 323 324 323 323
306 306 307 307 308 308 309 310 312 315 321 323 325 324 323 325 324 325 326 325 325 325 324 323 323 321 322 322 322 322 322 322
305 304 305 304 304 304 305 306 308 312 318 320 321 324 324 323 323 323 323 323 323 322 321 320 319 319 320 321 320 321 321 320
302 301 301 300 300 301 302 302 303 307 312 318 318 319 322 320 322 323 322 321 319 318 317 316 315 315 316 316 317 318 319 320
300 299 299 299 299 298 299 299 301 303 305 307 308 309 317 320 322 322 320 319 317 316 316 313 315 315 315 315 315 315 316 317
300 299 299 298 297 297 296 296 297 299 299 300 301 305 310 315 320 320 319 318 317 316 314 313 314 314 314 314 314 314 314 315
298 299 299 297 296 295 294 293 293 295 295 295 297 300 303 306 308 316 318 317 315 314 312 313 313 312 302 300 307 313 313 312
293 292 293 296 294 294 292 292 294 293 293 293 294 295 297 299 302 306 317 316 315 313 313 313 312 311 298 298 297 311 310 309
291 290 290 293 293 291 291 291 291 291 291 291 291 292 293 295 297 299 301 307 314 314 313 312 311 309 297 297 295 309 307 303

GFSFLT1_sfc_thetae_129.txt.gz
Theta_e
302 306 306 305 308 325 333 336 338 338 337 336 336 334 334 336 336 336 335 335 333 330 328 327 328 327 325 322 320 319 320 321
300 303 307 305 303 309 326 333 336 337 337 334 333 333 333 334 336 336 335 334 332 330 328 327 328 327 326 324 318 319 317 321
298 301 300 305 305 305 315 329 335 337 337 336 335 335 334 334 336 336 335 333 332 331 328 327 329 326 323 322 319 316 319 324
296 298 300 300 302 303 312 325 332 337 338 337 332 329 330 332 332 334 335 333 332 332 329 329 328 327 325 323 323 321 318 322
296 298 299 300 301 305 307 321 331 336 337 335 332 331 329 332 333 334 334 335 333 333 331 330 329 329 327 325 325 324 323 319
295 298 301 302 303 306 306 316 329 334 337 335 333 332 332 331 334 333 332 334 334 334 332 330 329 329 328 326 324 323 323 322
296 299 301 298 309 309 317 317 329 334 336 335 333 332 330 329 331 331 331 331 332 331 331 330 330 329 328 326 326 324 322 323
293 295 297 309 313 314 317 326 329 334 335 334 333 333 330 329 329 328 329 328 329 329 330 329 328 329 329 327 326 324 324 322
310 311 312 314 314 316 319 323 324 332 334 333 333 329 329 328 328 329 328 328 328 329 329 329 328 328 328 327 326 325 324 323
309 309 311 313 314 314 317 321 323 324 325 324 326 328 328 327 328 328 327 328 327 327 328 327 327 327 327 326 325 325 324 324
307 307 308 308 310 311 312 315 318 321 324 325 325 324 325 326 326 325 324 325 324 326 325 325 325 325 325 325 324 324 323 323
307 305 305 306 307 308 308 310 312 316 320 322 324 324 325 324 325 324 324 324 325 325 324 324 323 322 322 323 323 323 322 323
303 302 301 301 301 302 303 305 306 309 317 318 320 323 321 321 322 323 324 324 325 324 323 322 321 320 321 321 321 321 321 321
299 299 298 297 297 298 298 300 301 304 308 310 311 312 321 321 320 321 322 322 322 322 322 321 320 320 319 319 320 320 320 321
298 297 296 296 296 295 295 296 298 299 301 302 302 305 309 318 321 321 319 320 319 319 319 318 317 316 316 316 316 315 316 317
293 295 294 293 293 293 294 294 295 296 297 297 297 301 305 307 310 318 320 318 318 318 316 314 314 314 313 313 314 314 314 313
290 292 293 291 290 290 291 292 293 294 294 293 295 296 299 300 303 307 316 318 316 314 313 313 310 310 301 299 307 313 312 311
287 289 289 289 289 289 289 290 292 291 291 291 292 293 294 295 298 301 303 307 315 314 313 312 311 309 298 298 296 310 310 310
286 286 288 288 288 288 288 288 290 289 289 289 289 290 291 292 294 295 297 300 304 313 312 312 311 308 296 297 295 308 308 304

GFSFLT1_sfc_thetae_132.txt.gz
Theta_e
296 298 298 301 303 307 320 334 334 334 334 333 332 332 332 334 333 333 333 333 330 328 327 326 328 326 324 322 320 319 320 321
296 297 297 298 302 304 315 331 334 335 334 332 331 330 330 332 333 333 333 333 332 329 328 326 329 328 326 323 318 317 317 322
295 295 294 297 301 304 305 327 333 335 336 335 334 333 333 333 334 333 333 334 332 331 328 327 328 327 326 322 319 316 318 322
294 295 295 295 296 301 304 309 331 335 337 336 332 335 333 332 332 332 332 333 332 332 329 328 329 328 325 324 321 320 318 322
294 295 295 295 295 299 303 306 317 333 336 335 333 331 330 332 332 333 333 334 333 332 330 328 329 329 327 325 323 322 321 319
293 294 295 297 297 296 301 303 312 325 335 335 333 331 332 332 333 333 333 333 333 332 330 330 330 329 327 325 323 322 322 322
293 295 296 296 294 300 301 302 311 324 333 335 333 332 330 329 331 331 331 331 333 332 332 331 330 329 328 326 325 324 322 322
297 296 294 292 299 303 308 305 310 324 331 334 334 332 332 330 331 331 329 330 332 332 331 330 329 329 329 327 326 324 323 322
308 308 310 309 310 312 315 319 321 325 332 334 334 333 332 331 331 332 331 331 332 333 331 330 330 330 329 327 326 326 325 323
304 305 306 308 311 314 321 324 325 330 333 333 332 331 330 330 330 330 332 331 331 330 331 329 328 328 328 327 326 325 324 324
301 302 302 304 305 307 311 315 317 321 325 329 329 330 328 329 329 328 329 330 328 328 329 328 328 327 327 326 326 325 324 324
298 299 301 301 301 301 303 306 309 313 320 323 324 325 325 324 324 325 326 326 325 326 327 326 325 325 325 325 324 324 323 323
294 294 298 298 297 297 297 299 302 305 309 313 316 321 324 323 323 322 322 322 323 323 324 324 323 323 323 323 322 322 322 322
291 290 291 293 294 294 295 295 297 300 303 304 307 309 312 319 321 322 322 322 323 323 323 322 321 320 320 321 321 320 321 321
288 287 289 289 291 292 293 293 295 296 297 298 300 302 305 309 317 320 320 322 321 322 322 321 320 320 319 319 319 318 319 319
286 286 286 288 288 289 291 292 293 294 294 294 294 297 300 302 305 310 319 318 319 320 318 317 317 317 316 316 316 316 315 314
285 286 286 286 287 287 288 290 290 291 291 291 292 294 295 297 299 302 305 313 316 316 315 315 313 312 302 298 308 313 312 311
284 284 284 286 287 287 286 287 289 289 289 289 290 291 292 293 295 297 299 301 307 315 314 313 311 311 297 297 297 311 311 310
283 283 283 284 286 287 287 287 286 287 286 287 287 288 289 290 291 292 294 297 300 303 312 312 311 308 296 295 294 308 308 308